Time,TemperatureF,DewpointF,PressureIn,WindDirection,WindDirectionDegrees,WindSpeedMPH,WindSpeedGustMPH,Humidity,HourlyPrecipIn,Conditions,Clouds,dailyrainin,SoftwareType,DateUTC
2013-01-27 00:00:00,29.5,26.1,30.39,NE,42,0.0,5.0,87,0.00,,---,0.11,VWS V13.01,2013-01-27 05:00:00,
2013-01-27 00:01:00,29.4,26.0,30.39,NE,42,0.0,5.0,87,0.00,,---,0.11,VWS V13.01,2013-01-27 05:01:00,
2013-01-27 00:03:00,29.4,26.0,30.39,NE,42,0.0,1.0,87,0.00,,---,0.00,VWS V13.01,2013-01-27 05:03:00,
2013-01-27 00:05:00,29.4,26.0,30.39,NE,38,0.0,3.0,87,0.00,,---,0.00,VWS V13.01,2013-01-27 05:05:00,
2013-01-27 00:06:00,29.4,25.7,30.40,NE,39,0.0,3.0,86,0.00,,---,0.00,VWS V13.01,2013-01-27 05:06:00,
2013-01-27 00:08:00,29.4,26.0,30.40,NE,36,0.0,5.0,87,0.00,,---,0.00,VWS V13.01,2013-01-27 05:08:00,
2013-01-27 00:10:00,29.5,25.8,30.40,North,11,3.0,5.0,86,0.00,,---,0.00,VWS V13.01,2013-01-27 05:10:00,
2013-01-27 00:11:00,29.5,25.8,30.40,North,11,0.0,5.0,86,0.00,,---,0.00,VWS V13.01,2013-01-27 05:11:00,
2013-01-27 00:13:00,29.5,25.8,30.40,NNE,14,0.0,5.0,86,0.00,,---,0.00,VWS V13.01,2013-01-27 05:13:00,
2013-01-27 00:15:00,29.5,25.8,30.40,North,5,3.0,5.0,86,0.00,,---,0.00,VWS V13.01,2013-01-27 05:15:00,
2013-01-27 00:16:00,29.5,25.8,30.40,North,5,0.0,5.0,86,0.00,,---,0.00,VWS V13.01,2013-01-27 05:16:00,
2013-01-27 00:18:00,29.5,25.6,30.40,North,360,0.0,5.0,85,0.00,,---,0.00,VWS V13.01,2013-01-27 05:18:00,
2013-01-27 00:20:00,29.6,25.6,30.39,North,11,0.0,5.0,85,0.00,,---,0.00,VWS V13.01,2013-01-27 05:20:00,
2013-01-27 00:21:00,29.6,25.6,30.39,NNE,28,0.0,5.0,85,0.00,,---,0.00,VWS V13.01,2013-01-27 05:21:00,
2013-01-27 00:23:00,29.6,25.6,30.39,NNE,22,0.0,5.0,85,0.00,,---,0.00,VWS V13.01,2013-01-27 05:23:00,
2013-01-27 00:25:00,29.6,25.6,30.40,NNE,22,1.0,6.0,85,0.00,,---,0.00,VWS V13.01,2013-01-27 05:25:00,
2013-01-27 00:26:00,29.6,25.4,30.40,NNE,24,0.0,6.0,84,0.00,,---,0.00,VWS V13.01,2013-01-27 05:26:00,
2013-01-27 00:27:00,29.6,25.4,30.39,NNE,24,0.0,6.0,84,0.00,,---,0.00,VWS V13.01,2013-01-27 05:27:00,
2013-01-27 00:28:00,29.6,25.4,30.39,NNE,24,0.0,6.0,84,0.00,,---,0.00,VWS V13.01,2013-01-27 05:28:00,
2013-01-27 00:30:00,29.6,25.4,30.39,NNE,24,3.0,6.0,84,0.00,,---,0.00,VWS V13.01,2013-01-27 05:30:00,
2013-01-27 00:31:00,29.6,25.4,30.40,NNE,24,0.0,1.0,84,0.00,,---,0.00,VWS V13.01,2013-01-27 05:31:00,
2013-01-27 00:32:00,29.6,25.4,30.40,NNE,24,6.0,6.0,84,0.00,,---,0.00,VWS V13.01,2013-01-27 05:32:00,
2013-01-27 00:34:00,29.6,25.4,30.40,NNE,27,2.0,6.0,84,0.00,,---,0.00,VWS V13.01,2013-01-27 05:34:00,
2013-01-27 00:36:00,29.6,25.4,30.39,NNE,26,0.0,6.0,84,0.00,,---,0.00,VWS V13.01,2013-01-27 05:36:00,
2013-01-27 00:37:00,29.6,25.1,30.39,NNE,26,0.0,6.0,83,0.00,,---,0.00,VWS V13.01,2013-01-27 05:37:00,
2013-01-27 00:39:00,29.6,25.1,30.39,NNE,26,0.0,6.0,83,0.00,,---,0.00,VWS V13.01,2013-01-27 05:39:00,
2013-01-27 00:41:00,29.6,25.1,30.39,NNE,27,0.0,6.0,83,0.00,,---,0.00,VWS V13.01,2013-01-27 05:41:00,
2013-01-27 00:42:00,29.6,25.1,30.39,NNE,27,1.0,6.0,83,0.00,,---,0.00,VWS V13.01,2013-01-27 05:42:00,
2013-01-27 00:44:00,29.5,25.0,30.39,NNE,27,0.0,6.0,83,0.00,,---,0.00,VWS V13.01,2013-01-27 05:44:00,
2013-01-27 00:46:00,29.6,25.1,30.39,NNE,27,0.0,6.0,83,0.00,,---,0.00,VWS V13.01,2013-01-27 05:46:00,
2013-01-27 00:47:00,29.5,24.7,30.40,NNE,28,0.0,7.0,82,0.00,,---,0.00,VWS V13.01,2013-01-27 05:47:00,
2013-01-27 00:48:00,29.5,24.7,30.40,NNE,28,0.0,7.0,82,0.00,,---,0.00,VWS V13.01,2013-01-27 05:48:00,
2013-01-27 00:49:00,29.5,24.7,30.40,NNE,28,1.0,7.0,82,0.00,,---,0.00,VWS V13.01,2013-01-27 05:49:00,
2013-01-27 00:51:00,29.5,24.7,30.40,NNE,28,3.0,7.0,82,0.00,,---,0.00,VWS V13.01,2013-01-27 05:51:00,
2013-01-27 00:52:00,29.5,24.7,30.40,NNE,28,4.0,7.0,82,0.00,,---,0.00,VWS V13.01,2013-01-27 05:52:00,
2013-01-27 00:53:00,29.5,24.7,30.40,NNE,28,1.0,7.0,82,0.00,,---,0.00,VWS V13.01,2013-01-27 05:53:00,
2013-01-27 00:54:00,29.5,24.7,30.40,NNE,28,0.0,7.0,82,0.00,,---,0.00,VWS V13.01,2013-01-27 05:54:00,
2013-01-27 00:56:00,29.5,24.7,30.40,NNE,28,0.0,7.0,82,0.00,,---,0.00,VWS V13.01,2013-01-27 05:56:00,
2013-01-27 00:57:00,29.5,24.7,30.40,NNE,28,0.0,7.0,82,0.00,,---,0.00,VWS V13.01,2013-01-27 05:57:00,
2013-01-27 00:58:00,29.5,24.7,30.40,NNE,28,0.0,7.0,82,0.00,,---,0.00,VWS V13.01,2013-01-27 05:58:00,
2013-01-27 00:59:00,29.5,24.7,30.40,NNE,28,0.0,7.0,82,0.00,,---,0.00,VWS V13.01,2013-01-27 05:59:00,
2013-01-27 01:01:00,29.5,24.4,30.40,NNE,28,0.0,0.0,81,0.00,,---,0.00,VWS V13.01,2013-01-27 06:01:00,
2013-01-27 01:02:00,29.5,24.4,30.40,NNE,28,0.0,2.0,81,0.00,,---,0.00,VWS V13.01,2013-01-27 06:02:00,
2013-01-27 01:03:00,29.4,24.3,30.40,NNE,28,0.0,2.0,81,0.00,,---,0.00,VWS V13.01,2013-01-27 06:03:00,
2013-01-27 01:04:00,29.4,24.3,30.40,NNE,28,0.0,2.0,81,0.00,,---,0.00,VWS V13.01,2013-01-27 06:04:00,
2013-01-27 01:06:00,29.4,24.3,30.40,NNE,28,0.0,2.0,81,0.00,,---,0.00,VWS V13.01,2013-01-27 06:06:00,
2013-01-27 01:08:00,29.4,24.3,30.40,NNE,28,0.0,2.0,81,0.00,,---,0.00,VWS V13.01,2013-01-27 06:08:00,
2013-01-27 01:09:00,29.4,24.3,30.40,NNE,28,0.0,2.0,81,0.00,,---,0.00,VWS V13.01,2013-01-27 06:09:00,
2013-01-27 01:11:00,29.4,24.3,30.41,NNE,28,0.0,2.0,81,0.00,,---,0.00,VWS V13.01,2013-01-27 06:11:00,
2013-01-27 01:13:00,29.4,24.3,30.41,NNE,28,0.0,3.0,81,0.00,,---,0.00,VWS V13.01,2013-01-27 06:13:00,
2013-01-27 01:14:00,29.4,24.3,30.41,NNE,28,0.0,3.0,81,0.00,,---,0.00,VWS V13.01,2013-01-27 06:14:00,
2013-01-27 01:16:00,29.3,24.2,30.41,NNE,28,0.0,3.0,81,0.00,,---,0.00,VWS V13.01,2013-01-27 06:16:00,
2013-01-27 01:18:00,29.3,24.2,30.41,NNE,28,0.0,3.0,81,0.00,,---,0.00,VWS V13.01,2013-01-27 06:18:00,
2013-01-27 01:19:00,29.3,24.2,30.41,NNE,28,0.0,3.0,81,0.00,,---,0.00,VWS V13.01,2013-01-27 06:19:00,
2013-01-27 01:21:00,29.3,24.2,30.41,NNE,28,0.0,3.0,81,0.00,,---,0.00,VWS V13.01,2013-01-27 06:21:00,
2013-01-27 01:23:00,29.2,24.1,30.41,NNE,28,0.0,3.0,81,0.00,,---,0.00,VWS V13.01,2013-01-27 06:23:00,
2013-01-27 01:24:00,29.2,24.1,30.41,NNE,28,0.0,3.0,81,0.00,,---,0.00,VWS V13.01,2013-01-27 06:24:00,
2013-01-27 01:26:00,29.2,24.1,30.41,NNE,28,0.0,3.0,81,0.00,,---,0.00,VWS V13.01,2013-01-27 06:26:00,
2013-01-27 01:28:00,29.2,24.1,30.41,NNE,28,0.0,3.0,81,0.00,,---,0.00,VWS V13.01,2013-01-27 06:28:00,
2013-01-27 01:29:00,29.2,24.1,30.41,NNE,28,0.0,3.0,81,0.00,,---,0.00,VWS V13.01,2013-01-27 06:29:00,
2013-01-27 01:31:00,29.1,24.0,30.41,NNE,28,0.0,1.0,81,0.00,,---,0.00,VWS V13.01,2013-01-27 06:31:00,
2013-01-27 01:33:00,29.1,24.0,30.41,NNE,28,0.0,1.0,81,0.00,,---,0.00,VWS V13.01,2013-01-27 06:33:00,
2013-01-27 01:34:00,29.0,23.9,30.41,NNE,28,4.0,4.0,81,0.00,,---,0.00,VWS V13.01,2013-01-27 06:34:00,
2013-01-27 01:36:00,29.0,23.9,30.41,NNE,28,0.0,4.0,81,0.00,,---,0.00,VWS V13.01,2013-01-27 06:36:00,
2013-01-27 01:38:00,29.0,23.9,30.41,NNE,28,0.0,4.0,81,0.00,,---,0.00,VWS V13.01,2013-01-27 06:38:00,
2013-01-27 01:39:00,29.0,23.9,30.41,NNE,28,1.0,4.0,81,0.00,,---,0.00,VWS V13.01,2013-01-27 06:39:00,
2013-01-27 01:41:00,28.9,23.8,30.42,NNE,28,0.0,4.0,81,0.00,,---,0.00,VWS V13.01,2013-01-27 06:41:00,
2013-01-27 01:43:00,28.9,23.8,30.42,NNE,28,0.0,4.0,81,0.00,,---,0.00,VWS V13.01,2013-01-27 06:43:00,
2013-01-27 01:44:00,28.9,23.8,30.42,NNE,28,0.0,4.0,81,0.00,,---,0.00,VWS V13.01,2013-01-27 06:44:00,
2013-01-27 01:47:00,28.8,23.7,30.42,NNE,28,0.0,4.0,81,0.00,,---,0.00,VWS V13.01,2013-01-27 06:47:00,
2013-01-27 01:48:00,28.8,23.7,30.42,NNE,28,0.0,4.0,81,0.00,,---,0.00,VWS V13.01,2013-01-27 06:48:00,
2013-01-27 01:49:00,28.8,23.7,30.42,NNE,28,0.0,4.0,81,0.00,,---,0.00,VWS V13.01,2013-01-27 06:49:00,
2013-01-27 01:52:00,28.8,23.7,30.42,NNE,28,0.0,4.0,81,0.00,,---,0.00,VWS V13.01,2013-01-27 06:52:00,
2013-01-27 01:53:00,28.8,23.7,30.42,NNE,28,0.0,4.0,81,0.00,,---,0.00,VWS V13.01,2013-01-27 06:53:00,
2013-01-27 01:54:00,28.7,23.6,30.42,NNE,28,0.0,4.0,81,0.00,,---,0.00,VWS V13.01,2013-01-27 06:54:00,
2013-01-27 01:57:00,28.7,23.6,30.42,NNE,28,2.0,4.0,81,0.00,,---,0.00,VWS V13.01,2013-01-27 06:57:00,
2013-01-27 01:59:00,28.7,23.6,30.42,NNE,28,0.0,4.0,81,0.00,,---,0.00,VWS V13.01,2013-01-27 06:59:00,
2013-01-27 02:00:00,28.7,23.6,30.42,NNE,28,0.0,4.0,81,0.00,,---,0.00,VWS V13.01,2013-01-27 07:00:00,
2013-01-27 02:02:00,28.6,23.5,30.42,NNE,28,1.0,2.0,81,0.00,,---,0.00,VWS V13.01,2013-01-27 07:02:00,
2013-01-27 02:04:00,28.6,23.5,30.42,NNE,28,0.0,5.0,81,0.00,,---,0.00,VWS V13.01,2013-01-27 07:04:00,
2013-01-27 02:05:00,28.6,23.5,30.42,NNE,28,0.0,5.0,81,0.00,,---,0.00,VWS V13.01,2013-01-27 07:05:00,
2013-01-27 02:07:00,28.6,23.5,30.43,NNE,28,3.0,5.0,81,0.00,,---,0.00,VWS V13.01,2013-01-27 07:07:00,
2013-01-27 02:09:00,28.6,23.5,30.42,NNE,28,0.0,5.0,81,0.00,,---,0.00,VWS V13.01,2013-01-27 07:09:00,
2013-01-27 02:13:00,28.5,23.4,30.43,NNE,17,0.0,5.0,81,0.00,,---,0.00,VWS V13.01,2013-01-27 07:13:00,
2013-01-27 02:14:00,28.5,23.4,30.43,NNE,17,0.0,5.0,81,0.00,,---,0.00,VWS V13.01,2013-01-27 07:14:00,
2013-01-27 02:18:00,28.5,23.4,30.43,NNE,17,2.0,5.0,81,0.00,,---,0.00,VWS V13.01,2013-01-27 07:18:00,
2013-01-27 02:19:00,28.5,23.4,30.43,NNE,17,0.0,5.0,81,0.00,,---,0.00,VWS V13.01,2013-01-27 07:19:00,
2013-01-27 02:23:00,28.5,23.4,30.43,NNE,15,0.0,5.0,81,0.00,,---,0.00,VWS V13.01,2013-01-27 07:23:00,
2013-01-27 02:24:00,28.5,23.4,30.43,NNE,15,0.0,5.0,81,0.00,,---,0.00,VWS V13.01,2013-01-27 07:24:00,
2013-01-27 02:28:00,28.5,23.4,30.43,NNE,17,6.0,7.0,81,0.00,,---,0.00,VWS V13.01,2013-01-27 07:28:00,
2013-01-27 02:29:00,28.5,23.1,30.43,NNE,17,0.0,7.0,80,0.00,,---,0.00,VWS V13.01,2013-01-27 07:29:00,
2013-01-27 02:33:00,28.5,23.1,30.43,NNE,17,0.0,5.0,80,0.00,,---,0.00,VWS V13.01,2013-01-27 07:33:00,
2013-01-27 02:34:00,28.4,23.0,30.43,NNE,17,0.0,5.0,80,0.00,,---,0.00,VWS V13.01,2013-01-27 07:34:00,
2013-01-27 02:38:00,28.4,23.0,30.43,NNE,17,0.0,5.0,80,0.00,,---,0.00,VWS V13.01,2013-01-27 07:38:00,
2013-01-27 02:39:00,28.4,23.0,30.43,NNE,21,4.0,5.0,80,0.00,,---,0.00,VWS V13.01,2013-01-27 07:39:00,
2013-01-27 02:43:00,28.4,23.0,30.43,NNE,14,0.0,5.0,80,0.00,,---,0.00,VWS V13.01,2013-01-27 07:43:00,
2013-01-27 02:44:00,28.4,23.0,30.43,NNE,14,0.0,5.0,80,0.00,,---,0.00,VWS V13.01,2013-01-27 07:44:00,
2013-01-27 02:48:00,28.4,23.0,30.43,NNE,15,0.0,7.0,80,0.00,,---,0.00,VWS V13.01,2013-01-27 07:48:00,
2013-01-27 02:49:00,28.4,23.0,30.43,NNE,14,0.0,7.0,80,0.00,,---,0.00,VWS V13.01,2013-01-27 07:49:00,
2013-01-27 02:50:00,28.4,23.0,30.43,NNE,15,0.0,7.0,80,0.00,,---,0.00,VWS V13.01,2013-01-27 07:50:00,
2013-01-27 02:53:00,28.4,23.0,30.43,NNE,14,0.0,7.0,80,0.00,,---,0.00,VWS V13.01,2013-01-27 07:53:00,
2013-01-27 02:54:00,28.4,23.0,30.43,NNE,15,0.0,7.0,80,0.00,,---,0.00,VWS V13.01,2013-01-27 07:54:00,
2013-01-27 02:55:00,28.4,23.0,30.43,NNE,15,0.0,7.0,80,0.00,,---,0.00,VWS V13.01,2013-01-27 07:55:00,
2013-01-27 02:59:00,28.4,23.0,30.43,North,360,0.0,7.0,80,0.00,,---,0.00,VWS V13.01,2013-01-27 07:59:00,
2013-01-27 03:00:00,28.4,23.0,30.43,North,360,0.0,7.0,80,0.00,,---,0.00,VWS V13.01,2013-01-27 08:00:00,
2013-01-27 03:04:00,28.3,22.9,30.43,North,360,0.0,3.0,80,0.00,,---,0.00,VWS V13.01,2013-01-27 08:04:00,
2013-01-27 03:05:00,28.3,22.9,30.43,North,360,0.0,3.0,80,0.00,,---,0.00,VWS V13.01,2013-01-27 08:05:00,
2013-01-27 03:09:00,28.3,22.6,30.43,North,360,1.0,4.0,79,0.00,,---,0.00,VWS V13.01,2013-01-27 08:09:00,
2013-01-27 03:10:00,28.3,22.6,30.43,North,360,0.0,4.0,79,0.00,,---,0.00,VWS V13.01,2013-01-27 08:10:00,
2013-01-27 03:14:00,28.3,22.6,30.43,North,5,0.0,4.0,79,0.00,,---,0.00,VWS V13.01,2013-01-27 08:14:00,
2013-01-27 03:15:00,28.3,22.6,30.43,North,5,0.0,4.0,79,0.00,,---,0.00,VWS V13.01,2013-01-27 08:15:00,
2013-01-27 03:19:00,28.3,22.6,30.43,North,5,0.0,4.0,79,0.00,,---,0.00,VWS V13.01,2013-01-27 08:19:00,
2013-01-27 03:20:00,28.2,22.5,30.43,North,5,0.0,4.0,79,0.00,,---,0.00,VWS V13.01,2013-01-27 08:20:00,
2013-01-27 03:24:00,28.1,22.4,30.43,North,5,0.0,4.0,79,0.00,,---,0.00,VWS V13.01,2013-01-27 08:24:00,
2013-01-27 03:25:00,28.1,22.4,30.43,North,5,0.0,4.0,79,0.00,,---,0.00,VWS V13.01,2013-01-27 08:25:00,
2013-01-27 03:29:00,28.1,22.4,30.43,North,5,0.0,4.0,79,0.00,,---,0.00,VWS V13.01,2013-01-27 08:29:00,
2013-01-27 03:30:00,28.1,22.4,30.43,North,360,3.0,4.0,79,0.00,,---,0.00,VWS V13.01,2013-01-27 08:30:00,
2013-01-27 03:34:00,28.0,22.3,30.43,North,360,0.0,2.0,79,0.00,,---,0.00,VWS V13.01,2013-01-27 08:34:00,
2013-01-27 03:35:00,28.0,22.3,30.43,North,5,0.0,2.0,79,0.00,,---,0.00,VWS V13.01,2013-01-27 08:35:00,
2013-01-27 03:39:00,27.9,22.2,30.43,North,360,0.0,2.0,79,0.00,,---,0.00,VWS V13.01,2013-01-27 08:39:00,
2013-01-27 03:40:00,27.9,22.2,30.43,North,5,0.0,2.0,79,0.00,,---,0.00,VWS V13.01,2013-01-27 08:40:00,
2013-01-27 03:44:00,27.9,22.2,30.43,North,5,0.0,2.0,79,0.00,,---,0.00,VWS V13.01,2013-01-27 08:44:00,
2013-01-27 03:45:00,27.8,22.1,30.42,North,5,2.0,3.0,79,0.00,,---,0.00,VWS V13.01,2013-01-27 08:45:00,
2013-01-27 03:49:00,27.8,22.1,30.43,North,360,2.0,4.0,79,0.00,,---,0.00,VWS V13.01,2013-01-27 08:49:00,
2013-01-27 03:50:00,27.8,22.1,30.43,North,360,2.0,4.0,79,0.00,,---,0.00,VWS V13.01,2013-01-27 08:50:00,
2013-01-27 03:51:00,27.7,22.0,30.43,North,5,0.0,4.0,79,0.00,,---,0.00,VWS V13.01,2013-01-27 08:51:00,
2013-01-27 03:55:00,27.6,22.0,30.43,North,360,0.0,4.0,79,0.00,,---,0.00,VWS V13.01,2013-01-27 08:55:00,
2013-01-27 03:56:00,27.6,22.0,30.43,North,360,1.0,4.0,79,0.00,,---,0.00,VWS V13.01,2013-01-27 08:56:00,
2013-01-27 04:00:00,27.5,21.9,30.43,North,5,0.0,5.0,79,0.00,,---,0.00,VWS V13.01,2013-01-27 09:00:00,
2013-01-27 04:01:00,27.5,21.9,30.43,North,5,0.0,0.0,79,0.00,,---,0.00,VWS V13.01,2013-01-27 09:01:00,
2013-01-27 04:05:00,27.4,22.0,30.43,North,360,0.0,2.0,80,0.00,,---,0.00,VWS V13.01,2013-01-27 09:05:00,
2013-01-27 04:06:00,27.4,22.0,30.43,North,5,0.0,2.0,80,0.00,,---,0.00,VWS V13.01,2013-01-27 09:06:00,
2013-01-27 04:10:00,27.4,22.0,30.43,North,360,0.0,3.0,80,0.00,,---,0.00,VWS V13.01,2013-01-27 09:10:00,
2013-01-27 04:11:00,27.4,22.0,30.43,North,9,1.0,4.0,80,0.00,,---,0.00,VWS V13.01,2013-01-27 09:11:00,
2013-01-27 04:15:00,27.3,22.0,30.43,North,9,0.0,4.0,80,0.00,,---,0.00,VWS V13.01,2013-01-27 09:15:00,
2013-01-27 04:16:00,27.3,22.0,30.43,North,9,0.0,4.0,80,0.00,,---,0.00,VWS V13.01,2013-01-27 09:16:00,
2013-01-27 04:20:00,27.2,21.9,30.43,North,5,0.0,4.0,80,0.00,,---,0.00,VWS V13.01,2013-01-27 09:20:00,
2013-01-27 04:21:00,27.2,21.9,30.43,North,5,0.0,4.0,80,0.00,,---,0.00,VWS V13.01,2013-01-27 09:21:00,
2013-01-27 04:25:00,27.2,21.9,30.43,North,360,0.0,4.0,80,0.00,,---,0.00,VWS V13.01,2013-01-27 09:25:00,
2013-01-27 04:26:00,27.2,21.9,30.44,North,5,0.0,4.0,80,0.00,,---,0.00,VWS V13.01,2013-01-27 09:26:00,
2013-01-27 04:30:00,27.1,21.8,30.44,North,360,0.0,4.0,80,0.00,,---,0.00,VWS V13.01,2013-01-27 09:30:00,
2013-01-27 04:31:00,27.1,21.8,30.44,North,5,0.0,0.0,80,0.00,,---,0.00,VWS V13.01,2013-01-27 09:31:00,
2013-01-27 04:32:00,27.1,21.8,30.44,North,5,0.0,0.0,80,0.00,,---,0.00,VWS V13.01,2013-01-27 09:32:00,
2013-01-27 04:35:00,27.1,21.8,30.44,North,5,0.0,1.0,80,0.00,,---,0.00,VWS V13.01,2013-01-27 09:35:00,
2013-01-27 04:36:00,27.1,21.8,30.44,North,5,0.0,1.0,80,0.00,,---,0.00,VWS V13.01,2013-01-27 09:36:00,
2013-01-27 04:37:00,27.1,21.8,30.44,North,360,0.0,1.0,80,0.00,,---,0.00,VWS V13.01,2013-01-27 09:37:00,
2013-01-27 04:40:00,27.0,21.7,30.44,North,5,0.0,1.0,80,0.00,,---,0.00,VWS V13.01,2013-01-27 09:40:00,
2013-01-27 04:41:00,27.0,21.7,30.44,North,360,0.0,1.0,80,0.00,,---,0.00,VWS V13.01,2013-01-27 09:41:00,
2013-01-27 04:42:00,27.0,21.7,30.44,North,5,2.0,3.0,80,0.00,,---,0.00,VWS V13.01,2013-01-27 09:42:00,
2013-01-27 04:45:00,27.0,21.7,30.44,North,5,0.0,3.0,80,0.00,,---,0.00,VWS V13.01,2013-01-27 09:45:00,
2013-01-27 04:46:00,27.0,21.7,30.44,North,5,0.0,3.0,80,0.00,,---,0.00,VWS V13.01,2013-01-27 09:46:00,
2013-01-27 04:47:00,27.0,21.7,30.44,North,9,0.0,3.0,80,0.00,,---,0.00,VWS V13.01,2013-01-27 09:47:00,
2013-01-27 04:50:00,27.0,21.7,30.44,North,9,0.0,3.0,80,0.00,,---,0.00,VWS V13.01,2013-01-27 09:50:00,
2013-01-27 04:51:00,26.9,21.6,30.44,North,9,0.0,3.0,80,0.00,,---,0.00,VWS V13.01,2013-01-27 09:51:00,
2013-01-27 04:52:00,27.0,21.7,30.44,North,9,0.0,3.0,80,0.00,,---,0.00,VWS V13.01,2013-01-27 09:52:00,
2013-01-27 04:56:00,26.9,21.6,30.44,North,9,0.0,3.0,80,0.00,,---,0.00,VWS V13.01,2013-01-27 09:56:00,
2013-01-27 04:57:00,26.9,21.6,30.44,North,9,0.0,3.0,80,0.00,,---,0.00,VWS V13.01,2013-01-27 09:57:00,
2013-01-27 05:01:00,26.9,21.6,30.44,North,9,0.0,0.0,80,0.00,,---,0.00,VWS V13.01,2013-01-27 10:01:00,
2013-01-27 05:02:00,26.9,21.6,30.44,North,9,0.0,2.0,80,0.00,,---,0.00,VWS V13.01,2013-01-27 10:02:00,
2013-01-27 05:06:00,26.9,21.6,30.43,North,9,0.0,2.0,80,0.00,,---,0.00,VWS V13.01,2013-01-27 10:06:00,
2013-01-27 05:07:00,26.9,21.6,30.43,North,9,0.0,2.0,80,0.00,,---,0.00,VWS V13.01,2013-01-27 10:07:00,
2013-01-27 05:08:00,26.9,21.6,30.43,North,9,0.0,2.0,80,0.00,,---,0.00,VWS V13.01,2013-01-27 10:08:00,
2013-01-27 05:11:00,26.8,21.5,30.44,North,9,0.0,2.0,80,0.00,,---,0.00,VWS V13.01,2013-01-27 10:11:00,
2013-01-27 05:12:00,26.8,21.5,30.44,North,9,0.0,2.0,80,0.00,,---,0.00,VWS V13.01,2013-01-27 10:12:00,
2013-01-27 05:13:00,26.8,21.5,30.44,North,9,0.0,2.0,80,0.00,,---,0.00,VWS V13.01,2013-01-27 10:13:00,
2013-01-27 05:16:00,26.7,21.4,30.44,North,9,0.0,2.0,80,0.00,,---,0.00,VWS V13.01,2013-01-27 10:16:00,
2013-01-27 05:17:00,26.7,21.4,30.44,North,9,0.0,2.0,80,0.00,,---,0.00,VWS V13.01,2013-01-27 10:17:00,
2013-01-27 05:18:00,26.7,21.4,30.44,North,9,0.0,2.0,80,0.00,,---,0.00,VWS V13.01,2013-01-27 10:18:00,
2013-01-27 05:21:00,26.7,21.4,30.44,North,360,0.0,2.0,80,0.00,,---,0.00,VWS V13.01,2013-01-27 10:21:00,
2013-01-27 05:22:00,26.7,21.4,30.44,North,5,0.0,2.0,80,0.00,,---,0.00,VWS V13.01,2013-01-27 10:22:00,
2013-01-27 05:23:00,26.7,21.4,30.44,North,5,0.0,3.0,80,0.00,,---,0.00,VWS V13.01,2013-01-27 10:23:00,
2013-01-27 05:26:00,26.6,21.3,30.44,North,360,0.0,3.0,80,0.00,,---,0.00,VWS V13.01,2013-01-27 10:26:00,
2013-01-27 05:27:00,26.6,21.3,30.44,North,5,0.0,3.0,80,0.00,,---,0.00,VWS V13.01,2013-01-27 10:27:00,
2013-01-27 05:28:00,26.6,21.3,30.44,North,5,0.0,3.0,80,0.00,,---,0.00,VWS V13.01,2013-01-27 10:28:00,
2013-01-27 05:31:00,26.5,21.2,30.45,North,360,0.0,0.0,80,0.00,,---,0.00,VWS V13.01,2013-01-27 10:31:00,
2013-01-27 05:32:00,26.5,21.2,30.45,North,5,0.0,0.0,80,0.00,,---,0.00,VWS V13.01,2013-01-27 10:32:00,
2013-01-27 05:33:00,26.5,21.2,30.45,North,5,0.0,0.0,80,0.00,,---,0.00,VWS V13.01,2013-01-27 10:33:00,
2013-01-27 05:36:00,26.5,21.2,30.45,North,360,0.0,2.0,80,0.00,,---,0.00,VWS V13.01,2013-01-27 10:36:00,
2013-01-27 05:38:00,26.5,21.2,30.45,North,5,0.0,2.0,80,0.00,,---,0.00,VWS V13.01,2013-01-27 10:38:00,
2013-01-27 05:41:00,26.4,21.1,30.44,North,5,0.0,2.0,80,0.00,,---,0.00,VWS V13.01,2013-01-27 10:41:00,
2013-01-27 05:43:00,26.4,21.1,30.44,North,5,0.0,2.0,80,0.00,,---,0.00,VWS V13.01,2013-01-27 10:43:00,
2013-01-27 05:44:00,26.4,21.1,30.44,North,5,0.0,2.0,80,0.00,,---,0.00,VWS V13.01,2013-01-27 10:44:00,
2013-01-27 05:46:00,26.4,21.1,30.45,North,360,0.0,2.0,80,0.00,,---,0.00,VWS V13.01,2013-01-27 10:46:00,
2013-01-27 05:48:00,26.4,21.1,30.44,North,5,0.0,2.0,80,0.00,,---,0.00,VWS V13.01,2013-01-27 10:48:00,
2013-01-27 05:49:00,26.3,21.0,30.44,North,5,0.0,2.0,80,0.00,,---,0.00,VWS V13.01,2013-01-27 10:49:00,
2013-01-27 05:52:00,26.3,21.0,30.44,North,5,1.0,3.0,80,0.00,,---,0.00,VWS V13.01,2013-01-27 10:52:00,
2013-01-27 05:53:00,26.3,21.0,30.44,North,5,0.0,3.0,80,0.00,,---,0.00,VWS V13.01,2013-01-27 10:53:00,
2013-01-27 05:54:00,26.3,21.0,30.44,North,5,0.0,3.0,80,0.00,,---,0.00,VWS V13.01,2013-01-27 10:54:00,
2013-01-27 05:57:00,26.2,20.9,30.45,North,360,0.0,3.0,80,0.00,,---,0.00,VWS V13.01,2013-01-27 10:57:00,
2013-01-27 05:58:00,26.2,20.9,30.45,North,360,0.0,3.0,80,0.00,,---,0.00,VWS V13.01,2013-01-27 10:58:00,
2013-01-27 05:59:00,26.2,20.9,30.45,North,5,0.0,3.0,80,0.00,,---,0.00,VWS V13.01,2013-01-27 10:59:00,
2013-01-27 06:02:00,26.2,20.9,30.45,North,5,0.0,0.0,80,0.00,,---,0.00,VWS V13.01,2013-01-27 11:02:00,
2013-01-27 06:03:00,26.2,20.9,30.45,North,5,0.0,2.0,80,0.00,,---,0.00,VWS V13.01,2013-01-27 11:03:00,
2013-01-27 06:04:00,26.1,20.8,30.45,North,360,0.0,2.0,80,0.00,,---,0.00,VWS V13.01,2013-01-27 11:04:00,
2013-01-27 06:07:00,26.1,21.1,30.45,North,360,0.0,2.0,81,0.00,,---,0.00,VWS V13.01,2013-01-27 11:07:00,
2013-01-27 06:08:00,26.1,21.1,30.45,North,360,0.0,2.0,81,0.00,,---,0.00,VWS V13.01,2013-01-27 11:08:00,
2013-01-27 06:09:00,26.1,21.1,30.45,North,9,0.0,2.0,81,0.00,,---,0.00,VWS V13.01,2013-01-27 11:09:00,
2013-01-27 06:12:00,26.1,21.1,30.45,North,5,0.0,2.0,81,0.00,,---,0.00,VWS V13.01,2013-01-27 11:12:00,
2013-01-27 06:13:00,26.1,21.1,30.45,North,360,0.0,2.0,81,0.00,,---,0.00,VWS V13.01,2013-01-27 11:13:00,
2013-01-27 06:14:00,26.0,21.0,30.45,North,5,0.0,2.0,81,0.00,,---,0.00,VWS V13.01,2013-01-27 11:14:00,
2013-01-27 06:17:00,26.0,21.0,30.45,North,5,0.0,2.0,81,0.00,,---,0.00,VWS V13.01,2013-01-27 11:17:00,
2013-01-27 06:18:00,26.0,21.0,30.45,North,5,0.0,2.0,81,0.00,,---,0.00,VWS V13.01,2013-01-27 11:18:00,
2013-01-27 06:19:00,26.0,21.0,30.45,North,360,0.0,2.0,81,0.00,,---,0.00,VWS V13.01,2013-01-27 11:19:00,
2013-01-27 06:22:00,26.0,21.0,30.46,North,360,0.0,2.0,81,0.00,,---,0.00,VWS V13.01,2013-01-27 11:22:00,
2013-01-27 06:23:00,26.0,21.0,30.46,North,5,0.0,2.0,81,0.00,,---,0.00,VWS V13.01,2013-01-27 11:23:00,
2013-01-27 06:24:00,26.0,21.0,30.46,North,5,0.0,2.0,81,0.00,,---,0.00,VWS V13.01,2013-01-27 11:24:00,
2013-01-27 06:27:00,26.0,21.0,30.46,North,5,0.0,2.0,81,0.00,,---,0.00,VWS V13.01,2013-01-27 11:27:00,
2013-01-27 06:28:00,26.0,21.0,30.46,North,360,0.0,2.0,81,0.00,,---,0.00,VWS V13.01,2013-01-27 11:28:00,
2013-01-27 06:29:00,26.0,21.0,30.46,North,5,0.0,2.0,81,0.00,,---,0.00,VWS V13.01,2013-01-27 11:29:00,
2013-01-27 06:32:00,26.0,21.0,30.46,North,5,0.0,0.0,81,0.00,,---,0.00,VWS V13.01,2013-01-27 11:32:00,
2013-01-27 06:33:00,25.9,20.9,30.46,North,360,0.0,0.0,81,0.00,,---,0.00,VWS V13.01,2013-01-27 11:33:00,
2013-01-27 06:34:00,25.9,20.9,30.46,North,5,0.0,0.0,81,0.00,,---,0.00,VWS V13.01,2013-01-27 11:34:00,
2013-01-27 06:35:00,25.9,20.9,30.46,North,5,0.0,0.0,81,0.00,,---,0.00,VWS V13.01,2013-01-27 11:35:00,
2013-01-27 06:37:00,25.9,20.9,30.46,North,5,0.0,0.0,81,0.00,,---,0.00,VWS V13.01,2013-01-27 11:37:00,
2013-01-27 06:38:00,25.9,20.9,30.46,North,5,0.0,0.0,81,0.00,,---,0.00,VWS V13.01,2013-01-27 11:38:00,
2013-01-27 06:39:00,25.9,20.9,30.46,North,360,0.0,0.0,81,0.00,,---,0.00,VWS V13.01,2013-01-27 11:39:00,
2013-01-27 06:40:00,25.9,20.9,30.46,North,5,0.0,0.0,81,0.00,,---,0.00,VWS V13.01,2013-01-27 11:40:00,
2013-01-27 06:42:00,25.8,20.8,30.46,North,360,0.0,2.0,81,0.00,,---,0.00,VWS V13.01,2013-01-27 11:42:00,
2013-01-27 06:43:00,25.9,20.9,30.46,North,5,0.0,2.0,81,0.00,,---,0.00,VWS V13.01,2013-01-27 11:43:00,
2013-01-27 06:45:00,25.8,20.8,30.47,North,5,0.0,2.0,81,0.00,,---,0.00,VWS V13.01,2013-01-27 11:45:00,
2013-01-27 06:47:00,25.8,20.8,30.47,North,360,0.0,2.0,81,0.00,,---,0.00,VWS V13.01,2013-01-27 11:47:00,
2013-01-27 06:48:00,25.8,20.8,30.47,North,360,0.0,2.0,81,0.00,,---,0.00,VWS V13.01,2013-01-27 11:48:00,
2013-01-27 06:50:00,25.8,20.8,30.47,North,5,0.0,2.0,81,0.00,,---,0.00,VWS V13.01,2013-01-27 11:50:00,
2013-01-27 06:53:00,25.8,20.8,30.47,North,5,0.0,2.0,81,0.00,,---,0.00,VWS V13.01,2013-01-27 11:53:00,
2013-01-27 06:55:00,25.7,20.7,30.47,North,5,0.0,2.0,81,0.00,,---,0.00,VWS V13.01,2013-01-27 11:55:00,
2013-01-27 06:58:00,25.8,20.8,30.47,North,5,1.0,2.0,81,0.00,,---,0.00,VWS V13.01,2013-01-27 11:58:00,
2013-01-27 07:00:00,25.7,20.7,30.47,North,360,0.0,2.0,81,0.00,,---,0.00,VWS V13.01,2013-01-27 12:00:00,
2013-01-27 07:03:00,25.7,20.7,30.48,North,5,0.0,0.0,81,0.00,,---,0.00,VWS V13.01,2013-01-27 12:03:00,
2013-01-27 07:05:00,25.7,20.7,30.48,North,360,0.0,1.0,81,0.00,,---,0.00,VWS V13.01,2013-01-27 12:05:00,
2013-01-27 07:06:00,25.7,20.7,30.48,North,5,0.0,1.0,81,0.00,,---,0.00,VWS V13.01,2013-01-27 12:06:00,
2013-01-27 07:08:00,25.6,20.6,30.48,North,5,0.0,1.0,81,0.00,,---,0.00,VWS V13.01,2013-01-27 12:08:00,
2013-01-27 07:10:00,25.6,20.6,30.48,North,5,3.0,3.0,81,0.00,,---,0.00,VWS V13.01,2013-01-27 12:10:00,
2013-01-27 07:11:00,25.6,20.6,30.48,North,5,0.0,4.0,81,0.00,,---,0.00,VWS V13.01,2013-01-27 12:11:00,
2013-01-27 07:13:00,25.6,20.6,30.48,North,360,0.0,4.0,81,0.00,,---,0.00,VWS V13.01,2013-01-27 12:13:00,
2013-01-27 07:14:00,25.6,20.6,30.48,North,5,0.0,4.0,81,0.00,,---,0.00,VWS V13.01,2013-01-27 12:14:00,
2013-01-27 07:15:00,25.6,20.6,30.48,North,5,3.0,4.0,81,0.00,,---,0.00,VWS V13.01,2013-01-27 12:15:00,
2013-01-27 07:16:00,25.6,20.9,30.48,North,5,0.0,4.0,82,0.00,,---,0.00,VWS V13.01,2013-01-27 12:16:00,
2013-01-27 07:18:00,25.6,20.9,30.49,North,5,0.0,4.0,82,0.00,,---,0.00,VWS V13.01,2013-01-27 12:18:00,
2013-01-27 07:19:00,25.5,20.8,30.49,North,5,0.0,4.0,82,0.00,,---,0.00,VWS V13.01,2013-01-27 12:19:00,
2013-01-27 07:20:00,25.5,20.8,30.49,North,5,0.0,4.0,82,0.00,,---,0.00,VWS V13.01,2013-01-27 12:20:00,
2013-01-27 07:21:00,25.5,20.8,30.49,North,360,0.0,4.0,82,0.00,,---,0.00,VWS V13.01,2013-01-27 12:21:00,
2013-01-27 07:23:00,25.5,20.8,30.49,North,5,0.0,4.0,82,0.00,,---,0.00,VWS V13.01,2013-01-27 12:23:00,
2013-01-27 07:24:00,25.5,20.8,30.49,North,5,0.0,4.0,82,0.00,,---,0.00,VWS V13.01,2013-01-27 12:24:00,
2013-01-27 07:25:00,25.5,20.8,30.49,North,5,0.0,4.0,82,0.00,,---,0.00,VWS V13.01,2013-01-27 12:25:00,
2013-01-27 07:26:00,25.5,20.8,30.49,North,5,0.0,4.0,82,0.00,,---,0.00,VWS V13.01,2013-01-27 12:26:00,
2013-01-27 07:28:00,25.4,20.7,30.49,North,360,1.0,4.0,82,0.00,,---,0.00,VWS V13.01,2013-01-27 12:28:00,
2013-01-27 07:29:00,25.4,20.7,30.49,North,5,0.0,4.0,82,0.00,,---,0.00,VWS V13.01,2013-01-27 12:29:00,
2013-01-27 07:30:00,25.4,20.7,30.49,North,5,0.0,4.0,82,0.00,,---,0.00,VWS V13.01,2013-01-27 12:30:00,
2013-01-27 07:31:00,25.4,20.7,30.49,North,5,0.0,1.0,82,0.00,,---,0.00,VWS V13.01,2013-01-27 12:31:00,
2013-01-27 07:33:00,25.4,20.7,30.49,North,5,0.0,1.0,82,0.00,,---,0.00,VWS V13.01,2013-01-27 12:33:00,
2013-01-27 07:34:00,25.4,20.7,30.49,North,5,0.0,1.0,82,0.00,,---,0.00,VWS V13.01,2013-01-27 12:34:00,
2013-01-27 07:35:00,25.4,20.7,30.49,North,5,0.0,1.0,82,0.00,,---,0.00,VWS V13.01,2013-01-27 12:35:00,
2013-01-27 07:36:00,25.4,20.7,30.50,North,5,3.0,3.0,82,0.00,,---,0.00,VWS V13.01,2013-01-27 12:36:00,
2013-01-27 07:38:00,25.4,20.7,30.50,North,5,0.0,4.0,82,0.00,,---,0.00,VWS V13.01,2013-01-27 12:38:00,
2013-01-27 07:39:00,25.4,20.7,30.50,North,5,2.0,4.0,82,0.00,,---,0.00,VWS V13.01,2013-01-27 12:39:00,
2013-01-27 07:40:00,25.4,20.7,30.50,North,5,0.0,4.0,82,0.00,,---,0.00,VWS V13.01,2013-01-27 12:40:00,
2013-01-27 07:41:00,25.3,20.6,30.50,North,5,0.0,4.0,82,0.00,,---,0.00,VWS V13.01,2013-01-27 12:41:00,
2013-01-27 07:43:00,25.3,20.6,30.50,North,5,0.0,4.0,82,0.00,,---,0.00,VWS V13.01,2013-01-27 12:43:00,
2013-01-27 07:44:00,25.3,20.6,30.50,North,360,0.0,4.0,82,0.00,,---,0.00,VWS V13.01,2013-01-27 12:44:00,
2013-01-27 07:46:00,25.3,20.9,30.50,North,5,0.0,4.0,83,0.00,,---,0.00,VWS V13.01,2013-01-27 12:46:00,
2013-01-27 07:48:00,25.4,21.0,30.50,North,5,2.0,4.0,83,0.00,,---,0.00,VWS V13.01,2013-01-27 12:48:00,
2013-01-27 07:50:00,25.4,21.0,30.50,North,5,1.0,4.0,83,0.00,,---,0.00,VWS V13.01,2013-01-27 12:50:00,
2013-01-27 07:51:00,25.4,21.0,30.50,North,5,0.0,4.0,83,0.00,,---,0.00,VWS V13.01,2013-01-27 12:51:00,
2013-01-27 07:52:00,25.4,21.0,30.50,North,360,0.0,4.0,83,0.00,,---,0.00,VWS V13.01,2013-01-27 12:52:00,
2013-01-27 07:53:00,25.4,21.0,30.50,North,5,0.0,4.0,83,0.00,,---,0.00,VWS V13.01,2013-01-27 12:53:00,
2013-01-27 07:55:00,25.4,21.0,30.50,North,5,0.0,4.0,83,0.00,,---,0.00,VWS V13.01,2013-01-27 12:55:00,
2013-01-27 07:56:00,25.4,21.0,30.50,North,5,0.0,4.0,83,0.00,,---,0.00,VWS V13.01,2013-01-27 12:56:00,
2013-01-27 07:57:00,25.4,21.0,30.50,North,5,0.0,4.0,83,0.00,,---,0.00,VWS V13.01,2013-01-27 12:57:00,
2013-01-27 07:58:00,25.4,21.0,30.50,North,5,0.0,4.0,83,0.00,,---,0.00,VWS V13.01,2013-01-27 12:58:00,
2013-01-27 07:59:00,25.4,21.0,30.51,North,5,0.0,4.0,83,0.00,,---,0.00,VWS V13.01,2013-01-27 12:59:00,
2013-01-27 08:01:00,25.4,21.0,30.51,North,360,0.0,0.0,83,0.00,,---,0.00,VWS V13.01,2013-01-27 13:01:00,
2013-01-27 08:02:00,25.5,21.1,30.51,North,360,0.0,3.0,83,0.00,,---,0.00,VWS V13.01,2013-01-27 13:02:00,
2013-01-27 08:03:00,25.5,21.1,30.51,North,360,0.0,3.0,83,0.00,,---,0.00,VWS V13.01,2013-01-27 13:03:00,
2013-01-27 08:05:00,25.5,21.1,30.51,North,11,3.0,4.0,83,0.00,,---,0.00,VWS V13.01,2013-01-27 13:05:00,
2013-01-27 08:06:00,25.5,21.4,30.51,North,11,2.0,4.0,84,0.00,,---,0.00,VWS V13.01,2013-01-27 13:06:00,
2013-01-27 08:07:00,25.6,21.5,30.51,North,11,0.0,4.0,84,0.00,,---,0.00,VWS V13.01,2013-01-27 13:07:00,
2013-01-27 08:08:00,25.6,21.5,30.51,North,11,0.0,4.0,84,0.00,,---,0.00,VWS V13.01,2013-01-27 13:08:00,
2013-01-27 08:10:00,25.6,21.5,30.51,NNE,13,0.0,4.0,84,0.00,,---,0.00,VWS V13.01,2013-01-27 13:10:00,
2013-01-27 08:11:00,25.6,21.5,30.51,NNE,13,0.0,4.0,84,0.00,,---,0.00,VWS V13.01,2013-01-27 13:11:00,
2013-01-27 08:12:00,25.6,21.5,30.51,NNE,13,3.0,4.0,84,0.00,,---,0.00,VWS V13.01,2013-01-27 13:12:00,
2013-01-27 08:14:00,25.7,21.5,30.51,NNE,13,0.0,4.0,84,0.00,,---,0.00,VWS V13.01,2013-01-27 13:14:00,
2013-01-27 08:15:00,25.7,21.5,30.51,NNE,13,0.0,4.0,84,0.00,,---,0.00,VWS V13.01,2013-01-27 13:15:00,
2013-01-27 08:17:00,25.8,21.6,30.51,NNE,13,0.0,4.0,84,0.00,,---,0.00,VWS V13.01,2013-01-27 13:17:00,
2013-01-27 08:19:00,25.8,21.6,30.51,NNE,13,0.0,4.0,84,0.00,,---,0.00,VWS V13.01,2013-01-27 13:19:00,
2013-01-27 08:20:00,25.9,21.7,30.51,NNE,13,0.0,4.0,84,0.00,,---,0.00,VWS V13.01,2013-01-27 13:20:00,
2013-01-27 08:22:00,26.0,21.8,30.51,NNE,13,2.0,4.0,84,0.00,,---,0.00,VWS V13.01,2013-01-27 13:22:00,
2013-01-27 08:24:00,26.0,22.1,30.52,NNE,13,1.0,4.0,85,0.00,,---,0.00,VWS V13.01,2013-01-27 13:24:00,
2013-01-27 08:25:00,26.1,22.2,30.52,NNE,13,0.0,4.0,85,0.00,,---,0.00,VWS V13.01,2013-01-27 13:25:00,
2013-01-27 08:27:00,26.2,22.3,30.52,NNE,13,1.0,4.0,85,0.00,,---,0.00,VWS V13.01,2013-01-27 13:27:00,
2013-01-27 08:29:00,26.3,22.4,30.52,NNE,13,1.0,4.0,85,0.00,,---,0.00,VWS V13.01,2013-01-27 13:29:00,
2013-01-27 08:30:00,26.3,22.4,30.52,NNE,13,0.0,4.0,85,0.00,,---,0.00,VWS V13.01,2013-01-27 13:30:00,
2013-01-27 08:32:00,26.5,22.6,30.52,NNE,13,0.0,0.0,85,0.00,,---,0.00,VWS V13.01,2013-01-27 13:32:00,
2013-01-27 08:34:00,26.6,24.6,30.53,NNE,13,0.0,1.0,92,0.00,,---,0.00,VWS V13.01,2013-01-27 13:34:00,
2013-01-27 08:35:00,26.7,22.8,30.53,NNE,13,0.0,1.0,85,0.00,,---,0.00,VWS V13.01,2013-01-27 13:35:00,
2013-01-27 08:37:00,26.9,23.0,30.53,NNE,14,0.0,3.0,85,0.00,,---,0.00,VWS V13.01,2013-01-27 13:37:00,
2013-01-27 08:39:00,27.0,23.1,30.53,NNE,15,0.0,3.0,85,0.00,,---,0.00,VWS V13.01,2013-01-27 13:39:00,
2013-01-27 08:41:00,27.1,23.2,30.53,NNE,14,0.0,3.0,85,0.00,,---,0.00,VWS V13.01,2013-01-27 13:41:00,
2013-01-27 08:42:00,27.1,23.2,30.53,NNE,15,2.0,3.0,85,0.00,,---,0.00,VWS V13.01,2013-01-27 13:42:00,
2013-01-27 08:44:00,27.3,25.3,30.53,NNE,14,0.0,3.0,92,0.00,,---,0.00,VWS V13.01,2013-01-27 13:44:00,
2013-01-27 08:46:00,27.5,23.9,30.53,NNE,15,0.0,3.0,86,0.00,,---,0.00,VWS V13.01,2013-01-27 13:46:00,
2013-01-27 08:47:00,27.6,24.0,30.53,NNE,14,0.0,3.0,86,0.00,,---,0.00,VWS V13.01,2013-01-27 13:47:00,
2013-01-27 08:48:00,27.6,24.0,30.53,NNE,15,0.0,3.0,86,0.00,,---,0.00,VWS V13.01,2013-01-27 13:48:00,
2013-01-27 08:49:00,27.7,24.1,30.53,NNE,15,0.0,3.0,86,0.00,,---,0.00,VWS V13.01,2013-01-27 13:49:00,
2013-01-27 08:51:00,27.8,23.9,30.54,NNE,15,0.0,3.0,85,0.00,,---,0.00,VWS V13.01,2013-01-27 13:51:00,
2013-01-27 08:53:00,27.9,24.0,30.54,NNE,15,0.0,3.0,85,0.00,,---,0.00,VWS V13.01,2013-01-27 13:53:00,
2013-01-27 08:55:00,28.1,24.5,30.54,NNE,14,0.0,3.0,86,0.00,,---,0.00,VWS V13.01,2013-01-27 13:55:00,
2013-01-27 08:56:00,28.2,24.6,30.54,NNE,15,4.0,4.0,86,0.00,,---,0.00,VWS V13.01,2013-01-27 13:56:00,
2013-01-27 08:58:00,28.3,24.7,30.54,NNE,14,2.0,5.0,86,0.00,,---,0.00,VWS V13.01,2013-01-27 13:58:00,
2013-01-27 09:00:00,28.4,24.5,30.54,NNE,17,3.0,5.0,85,0.00,,---,0.00,VWS V13.01,2013-01-27 14:00:00,
2013-01-27 09:01:00,28.6,24.7,30.54,NNE,17,0.0,0.0,85,0.00,,---,0.00,VWS V13.01,2013-01-27 14:01:00,
2013-01-27 09:03:00,28.7,24.8,30.54,NNE,17,0.0,0.0,85,0.00,,---,0.00,VWS V13.01,2013-01-27 14:03:00,
2013-01-27 09:05:00,28.8,24.9,30.54,NNE,17,0.0,0.0,85,0.00,,---,0.00,VWS V13.01,2013-01-27 14:05:00,
2013-01-27 09:06:00,28.8,24.9,30.54,NNE,17,1.0,1.0,85,0.00,,---,0.00,VWS V13.01,2013-01-27 14:06:00,
2013-01-27 09:08:00,28.9,25.0,30.54,NNE,17,0.0,1.0,85,0.00,,---,0.00,VWS V13.01,2013-01-27 14:08:00,
2013-01-27 09:10:00,29.0,25.1,30.54,NNE,17,1.0,3.0,85,0.00,,---,0.00,VWS V13.01,2013-01-27 14:10:00,
2013-01-27 09:11:00,29.1,25.2,30.54,NNE,17,1.0,4.0,85,0.00,,---,0.00,VWS V13.01,2013-01-27 14:11:00,
2013-01-27 09:13:00,29.2,25.3,30.54,NNE,17,1.0,4.0,85,0.00,,---,0.00,VWS V13.01,2013-01-27 14:13:00,
2013-01-27 09:15:00,29.3,25.4,30.54,NNE,25,2.0,4.0,85,0.00,,---,0.00,VWS V13.01,2013-01-27 14:15:00,
2013-01-27 09:17:00,29.4,25.5,30.54,NNE,26,2.0,4.0,85,0.00,,---,0.00,VWS V13.01,2013-01-27 14:17:00,
2013-01-27 09:18:00,29.5,25.6,30.54,NNE,26,0.0,4.0,85,0.00,,---,0.00,VWS V13.01,2013-01-27 14:18:00,
2013-01-27 09:20:00,29.6,25.6,30.54,NNE,28,1.0,4.0,85,0.00,,---,0.00,VWS V13.01,2013-01-27 14:20:00,
2013-01-27 09:22:00,29.7,25.8,30.54,NNE,33,1.0,5.0,85,0.00,,---,0.00,VWS V13.01,2013-01-27 14:22:00,
2013-01-27 09:23:00,29.8,25.9,30.54,NE,38,0.0,5.0,85,0.00,,---,0.00,VWS V13.01,2013-01-27 14:23:00,
2013-01-27 09:24:00,29.8,25.9,30.54,NE,38,0.0,5.0,85,0.00,,---,0.00,VWS V13.01,2013-01-27 14:24:00,
2013-01-27 09:25:00,29.9,26.0,30.55,NE,41,5.0,5.0,85,0.00,,---,0.00,VWS V13.01,2013-01-27 14:25:00,
2013-01-27 09:27:00,30.1,26.1,30.55,NE,43,0.0,5.0,85,0.00,,---,0.00,VWS V13.01,2013-01-27 14:27:00,
2013-01-27 09:28:00,30.2,26.2,30.55,NE,42,3.0,5.0,85,0.00,,---,0.00,VWS V13.01,2013-01-27 14:28:00,
2013-01-27 09:29:00,30.2,26.2,30.55,NE,42,0.0,5.0,85,0.00,,---,0.00,VWS V13.01,2013-01-27 14:29:00,
2013-01-27 09:31:00,30.4,26.4,30.55,ESE,111,7.0,7.0,85,0.00,,---,0.00,VWS V13.01,2013-01-27 14:31:00,
2013-01-27 09:32:00,30.5,26.2,30.55,ESE,117,1.0,8.0,84,0.00,,---,0.00,VWS V13.01,2013-01-27 14:32:00,
2013-01-27 09:33:00,30.6,26.4,30.55,ESE,117,0.0,8.0,84,0.00,,---,0.00,VWS V13.01,2013-01-27 14:33:00,
2013-01-27 09:34:00,30.6,26.4,30.55,ESE,117,0.0,8.0,84,0.00,,---,0.00,VWS V13.01,2013-01-27 14:34:00,
2013-01-27 09:36:00,30.7,26.5,30.55,ESE,117,1.0,8.0,84,0.00,,---,0.00,VWS V13.01,2013-01-27 14:36:00,
2013-01-27 09:37:00,30.8,26.5,30.55,ESE,117,1.0,8.0,84,0.00,,---,0.00,VWS V13.01,2013-01-27 14:37:00,
2013-01-27 09:39:00,30.9,26.6,30.55,ESE,117,0.0,8.0,84,0.00,,---,0.00,VWS V13.01,2013-01-27 14:39:00,
2013-01-27 09:42:00,31.1,26.8,30.56,East,90,1.0,8.0,84,0.00,,---,0.00,VWS V13.01,2013-01-27 14:42:00,
2013-01-27 09:44:00,31.2,26.9,30.56,ENE,73,0.0,8.0,84,0.00,,---,0.00,VWS V13.01,2013-01-27 14:44:00,
2013-01-27 09:47:00,31.4,26.8,30.56,ENE,73,0.0,8.0,83,0.00,,---,0.00,VWS V13.01,2013-01-27 14:47:00,
2013-01-27 09:49:00,31.6,27.0,30.56,ENE,75,0.0,8.0,83,0.00,,---,0.00,VWS V13.01,2013-01-27 14:49:00,
2013-01-27 09:52:00,31.8,27.2,30.56,ENE,75,1.0,8.0,83,0.00,,---,0.00,VWS V13.01,2013-01-27 14:52:00,
2013-01-27 09:54:00,32.0,27.4,30.56,ESE,121,0.0,8.0,83,0.00,,---,0.00,VWS V13.01,2013-01-27 14:54:00,
2013-01-27 09:57:00,32.3,27.7,30.56,ESE,103,0.0,8.0,83,0.00,,---,0.00,VWS V13.01,2013-01-27 14:57:00,
2013-01-27 09:59:00,32.4,27.5,30.56,East,101,0.0,8.0,82,0.00,,---,0.00,VWS V13.01,2013-01-27 14:59:00,
2013-01-27 10:02:00,32.7,27.8,30.56,SE,146,1.0,5.0,82,0.00,,---,0.00,VWS V13.01,2013-01-27 15:02:00,
2013-01-27 10:03:00,32.7,27.8,30.56,SE,146,0.0,5.0,82,0.00,,---,0.00,VWS V13.01,2013-01-27 15:03:00,
2013-01-27 10:04:00,32.8,27.6,30.56,SE,146,0.0,5.0,81,0.00,,---,0.00,VWS V13.01,2013-01-27 15:04:00,
2013-01-27 10:07:00,33.1,27.9,30.56,ENE,71,3.0,5.0,81,0.00,,---,0.00,VWS V13.01,2013-01-27 15:07:00,
2013-01-27 10:08:00,33.2,28.0,30.57,East,84,0.0,5.0,81,0.00,,---,0.00,VWS V13.01,2013-01-27 15:08:00,
2013-01-27 10:09:00,33.2,28.0,30.57,East,80,5.0,5.0,81,0.00,,---,0.00,VWS V13.01,2013-01-27 15:09:00,
2013-01-27 10:12:00,33.4,27.9,30.57,East,99,0.0,9.0,80,0.00,,---,0.00,VWS V13.01,2013-01-27 15:12:00,
2013-01-27 10:13:00,33.5,28.0,30.57,East,99,0.0,9.0,80,0.00,,---,0.00,VWS V13.01,2013-01-27 15:13:00,
2013-01-27 10:14:00,33.6,28.1,30.57,ENE,77,4.0,9.0,80,0.00,,---,0.00,VWS V13.01,2013-01-27 15:14:00,
2013-01-27 10:15:00,33.6,28.1,30.57,ENE,75,0.0,9.0,80,0.00,,---,0.00,VWS V13.01,2013-01-27 15:15:00,
2013-01-27 10:17:00,33.8,28.3,30.57,ENE,74,3.0,10.0,80,0.00,,---,0.00,VWS V13.01,2013-01-27 15:17:00,
2013-01-27 10:18:00,33.8,29.5,30.57,ENE,76,0.0,10.0,84,0.00,,---,0.00,VWS V13.01,2013-01-27 15:18:00,
2013-01-27 10:19:00,33.8,29.5,30.57,ENE,67,2.0,10.0,84,0.00,,---,0.00,VWS V13.01,2013-01-27 15:19:00,
2013-01-27 10:20:00,33.9,28.1,30.57,East,88,0.0,10.0,79,0.00,,---,0.00,VWS V13.01,2013-01-27 15:20:00,
2013-01-27 10:22:00,34.1,28.3,30.57,East,96,0.0,10.0,79,0.00,,---,0.00,VWS V13.01,2013-01-27 15:22:00,
2013-01-27 10:23:00,34.1,28.3,30.57,East,95,0.0,10.0,79,0.00,,---,0.00,VWS V13.01,2013-01-27 15:23:00,
2013-01-27 10:24:00,34.2,28.4,30.57,East,94,0.0,10.0,79,0.00,,---,0.00,VWS V13.01,2013-01-27 15:24:00,
2013-01-27 10:25:00,34.2,28.4,30.57,East,94,0.0,10.0,79,0.00,,---,0.00,VWS V13.01,2013-01-27 15:25:00,
2013-01-27 10:28:00,34.4,28.6,30.58,East,90,3.0,10.0,79,0.00,,---,0.00,VWS V13.01,2013-01-27 15:28:00,
2013-01-27 10:29:00,34.4,28.6,30.58,East,90,0.0,10.0,79,0.00,,---,0.00,VWS V13.01,2013-01-27 15:29:00,
2013-01-27 10:30:00,34.4,28.6,30.58,ESE,109,3.0,10.0,79,0.00,,---,0.00,VWS V13.01,2013-01-27 15:30:00,
2013-01-27 10:33:00,34.7,28.5,30.58,ESE,108,1.0,5.0,78,0.00,,---,0.00,VWS V13.01,2013-01-27 15:33:00,
2013-01-27 10:34:00,34.8,28.6,30.58,ESE,113,2.0,5.0,78,0.00,,---,0.00,VWS V13.01,2013-01-27 15:34:00,
2013-01-27 10:35:00,34.8,28.6,30.58,ESE,115,3.0,5.0,78,0.01,,---,0.01,VWS V13.01,2013-01-27 15:35:00,
2013-01-27 10:38:00,35.1,28.6,30.58,ESE,111,0.0,5.0,77,0.01,,---,0.01,VWS V13.01,2013-01-27 15:38:00,
2013-01-27 10:39:00,35.2,28.7,30.58,ESE,113,5.0,5.0,77,0.01,,---,0.01,VWS V13.01,2013-01-27 15:39:00,
2013-01-27 10:40:00,35.3,28.8,30.58,ESE,122,3.0,5.0,77,0.01,,---,0.01,VWS V13.01,2013-01-27 15:40:00,
2013-01-27 10:43:00,35.5,28.7,30.58,ESE,102,4.0,6.0,76,0.01,,---,0.01,VWS V13.01,2013-01-27 15:43:00,
2013-01-27 10:44:00,35.6,28.8,30.58,SE,144,0.0,6.0,76,0.01,,---,0.01,VWS V13.01,2013-01-27 15:44:00,
2013-01-27 10:45:00,35.6,28.8,30.58,SE,136,8.0,8.0,76,0.01,,---,0.01,VWS V13.01,2013-01-27 15:45:00,
2013-01-27 10:48:00,35.9,28.8,30.58,SE,132,0.0,8.0,75,0.01,,---,0.01,VWS V13.01,2013-01-27 15:48:00,
2013-01-27 10:49:00,36.0,28.9,30.58,SE,142,0.0,8.0,75,0.01,,---,0.01,VWS V13.01,2013-01-27 15:49:00,
2013-01-27 10:50:00,36.1,29.0,30.58,ENE,64,4.0,8.0,75,0.01,,---,0.01,VWS V13.01,2013-01-27 15:50:00,
2013-01-27 10:53:00,36.2,28.7,30.58,ESE,119,0.0,8.0,74,0.01,,---,0.01,VWS V13.01,2013-01-27 15:53:00,
2013-01-27 10:54:00,36.2,28.7,30.57,East,79,0.0,8.0,74,0.01,,---,0.01,VWS V13.01,2013-01-27 15:54:00,
2013-01-27 10:55:00,36.3,28.8,30.57,East,90,0.0,8.0,74,0.01,,---,0.01,VWS V13.01,2013-01-27 15:55:00,
2013-01-27 10:58:00,36.5,29.0,30.57,ESE,119,0.0,8.0,74,0.01,,---,0.01,VWS V13.01,2013-01-27 15:58:00,
2013-01-27 10:59:00,36.5,29.0,30.56,SSE,157,0.0,8.0,74,0.01,,---,0.01,VWS V13.01,2013-01-27 15:59:00,
2013-01-27 11:01:00,36.6,29.1,30.57,East,88,5.0,6.0,74,0.01,,---,0.01,VWS V13.01,2013-01-27 16:01:00,
2013-01-27 11:03:00,36.7,28.5,30.57,ESE,117,2.0,7.0,72,0.01,,---,0.01,VWS V13.01,2013-01-27 16:03:00,
2013-01-27 11:04:00,36.7,28.5,30.56,SE,124,1.0,7.0,72,0.01,,---,0.01,VWS V13.01,2013-01-27 16:04:00,
2013-01-27 11:05:00,36.7,28.5,30.56,SE,142,0.0,7.0,72,0.01,,---,0.01,VWS V13.01,2013-01-27 16:05:00,
2013-01-27 11:06:00,36.8,28.6,30.56,SSE,156,5.0,7.0,72,0.01,,---,0.01,VWS V13.01,2013-01-27 16:06:00,
2013-01-27 11:09:00,36.8,28.6,30.56,East,83,3.0,9.0,72,0.01,,---,0.01,VWS V13.01,2013-01-27 16:09:00,
2013-01-27 11:10:00,36.9,29.1,30.56,ESE,118,0.0,9.0,73,0.01,,---,0.01,VWS V13.01,2013-01-27 16:10:00,
2013-01-27 11:11:00,36.9,29.1,30.56,ESE,118,0.0,9.0,73,0.01,,---,0.01,VWS V13.01,2013-01-27 16:11:00,
2013-01-27 11:14:00,37.0,29.2,30.57,SSE,148,0.0,9.0,73,0.01,,---,0.01,VWS V13.01,2013-01-27 16:14:00,
2013-01-27 11:15:00,37.2,29.4,30.57,ESE,102,2.0,9.0,73,0.01,,---,0.01,VWS V13.01,2013-01-27 16:15:00,
2013-01-27 11:16:00,37.3,29.5,30.57,SE,124,0.0,9.0,73,0.01,,---,0.01,VWS V13.01,2013-01-27 16:16:00,
2013-01-27 11:19:00,37.5,29.0,30.57,SSE,167,3.0,9.0,71,0.01,,---,0.01,VWS V13.01,2013-01-27 16:19:00,
2013-01-27 11:21:00,37.7,29.2,30.57,SE,143,6.0,9.0,71,0.01,,---,0.01,VWS V13.01,2013-01-27 16:21:00,
2013-01-27 11:24:00,37.8,28.6,30.56,SSW,194,7.0,12.0,69,0.01,,---,0.01,VWS V13.01,2013-01-27 16:24:00,
2013-01-27 11:25:00,37.9,28.6,30.56,South,173,3.0,12.0,69,0.01,,---,0.01,VWS V13.01,2013-01-27 16:25:00,
2013-01-27 11:26:00,37.9,28.6,30.57,SSW,205,0.0,12.0,69,0.01,,---,0.01,VWS V13.01,2013-01-27 16:26:00,
2013-01-27 11:29:00,38.0,29.1,30.57,SSE,156,5.0,12.0,70,0.01,,---,0.01,VWS V13.01,2013-01-27 16:29:00,
2013-01-27 11:30:00,38.1,28.8,30.56,SSE,158,3.0,12.0,69,0.01,,---,0.01,VWS V13.01,2013-01-27 16:30:00,
2013-01-27 11:31:00,38.1,28.8,30.56,SSE,159,0.0,12.0,69,0.01,,---,0.01,VWS V13.01,2013-01-27 16:31:00,
2013-01-27 11:34:00,38.2,28.9,30.57,SSE,148,0.0,6.0,69,0.01,,---,0.01,VWS V13.01,2013-01-27 16:34:00,
2013-01-27 11:35:00,38.3,29.0,30.57,South,172,3.0,6.0,69,0.01,,---,0.01,VWS V13.01,2013-01-27 16:35:00,
2013-01-27 11:36:00,38.3,29.0,30.57,SSE,160,4.0,6.0,69,0.01,,---,0.01,VWS V13.01,2013-01-27 16:36:00,
2013-01-27 11:37:00,38.3,29.0,30.57,SW,215,0.0,6.0,69,0.01,,---,0.01,VWS V13.01,2013-01-27 16:37:00,
2013-01-27 11:39:00,38.5,28.9,30.56,SSW,197,2.0,6.0,68,0.01,,---,0.01,VWS V13.01,2013-01-27 16:39:00,
2013-01-27 11:40:00,38.5,28.9,30.56,SSW,211,0.0,6.0,68,0.01,,---,0.01,VWS V13.01,2013-01-27 16:40:00,
2013-01-27 11:41:00,38.6,29.0,30.56,SSW,212,0.0,6.0,68,0.01,,---,0.01,VWS V13.01,2013-01-27 16:41:00,
2013-01-27 11:42:00,38.6,29.0,30.56,SSW,211,0.0,6.0,68,0.01,,---,0.01,VWS V13.01,2013-01-27 16:42:00,
2013-01-27 11:44:00,38.7,29.1,30.56,ESE,108,0.0,6.0,68,0.01,,---,0.01,VWS V13.01,2013-01-27 16:44:00,
2013-01-27 11:45:00,38.8,29.2,30.56,NE,46,0.0,6.0,68,0.01,,---,0.01,VWS V13.01,2013-01-27 16:45:00,
2013-01-27 11:46:00,38.9,29.2,30.56,SSE,151,6.0,6.0,68,0.01,,---,0.01,VWS V13.01,2013-01-27 16:46:00,
2013-01-27 11:47:00,38.9,29.2,30.56,SSE,155,5.0,6.0,68,0.01,,---,0.01,VWS V13.01,2013-01-27 16:47:00,
2013-01-27 11:49:00,39.1,29.5,30.56,ESE,114,0.0,7.0,68,0.01,,---,0.01,VWS V13.01,2013-01-27 16:49:00,
2013-01-27 11:50:00,39.1,29.1,30.56,ESE,103,0.0,7.0,67,0.01,,---,0.01,VWS V13.01,2013-01-27 16:50:00,
2013-01-27 11:52:00,39.1,28.7,30.56,SE,141,0.0,7.0,66,0.01,,---,0.01,VWS V13.01,2013-01-27 16:52:00,
2013-01-27 11:54:00,39.1,28.7,30.56,South,179,0.0,7.0,66,0.01,,---,0.01,VWS V13.01,2013-01-27 16:54:00,
2013-01-27 11:55:00,39.1,29.1,30.56,South,179,0.0,7.0,67,0.01,,---,0.01,VWS V13.01,2013-01-27 16:55:00,
2013-01-27 11:57:00,39.1,28.7,30.56,SSW,213,2.0,7.0,66,0.01,,---,0.01,VWS V13.01,2013-01-27 16:57:00,
2013-01-27 11:59:00,39.2,29.2,30.56,South,180,0.0,7.0,67,0.01,,---,0.01,VWS V13.01,2013-01-27 16:59:00,
2013-01-27 12:00:00,39.3,29.3,30.56,SSW,200,2.0,7.0,67,0.01,,---,0.01,VWS V13.01,2013-01-27 17:00:00,
2013-01-27 12:02:00,39.3,28.9,30.55,South,188,0.0,7.0,66,0.00,,---,0.01,VWS V13.01,2013-01-27 17:02:00,
2013-01-27 12:04:00,39.4,29.0,30.55,SE,131,0.0,11.0,66,0.00,,---,0.01,VWS V13.01,2013-01-27 17:04:00,
2013-01-27 12:05:00,39.5,29.1,30.55,SE,129,0.0,11.0,66,0.00,,---,0.01,VWS V13.01,2013-01-27 17:05:00,
2013-01-27 12:07:00,39.5,28.7,30.55,SE,138,2.0,11.0,65,0.00,,---,0.01,VWS V13.01,2013-01-27 17:07:00,
2013-01-27 12:10:00,39.5,28.7,30.55,ESE,117,0.0,11.0,65,0.00,,---,0.01,VWS V13.01,2013-01-27 17:10:00,
2013-01-27 12:12:00,39.5,28.7,30.55,SE,133,1.0,11.0,65,0.00,,---,0.01,VWS V13.01,2013-01-27 17:12:00,
2013-01-27 12:13:00,39.5,28.7,30.55,SE,133,0.0,11.0,65,0.00,,---,0.01,VWS V13.01,2013-01-27 17:13:00,
2013-01-27 12:15:00,39.4,28.6,30.55,SE,134,3.0,11.0,65,0.00,,---,0.01,VWS V13.01,2013-01-27 17:15:00,
2013-01-27 12:17:00,39.4,28.6,30.54,ESE,111,2.0,11.0,65,0.00,,---,0.01,VWS V13.01,2013-01-27 17:17:00,
2013-01-27 12:18:00,39.4,28.6,30.54,SE,130,4.0,11.0,65,0.00,,---,0.01,VWS V13.01,2013-01-27 17:18:00,
2013-01-27 12:20:00,39.3,28.5,30.54,SSW,196,0.0,11.0,65,0.00,,---,0.01,VWS V13.01,2013-01-27 17:20:00,
2013-01-27 12:21:00,39.3,28.5,30.54,SSW,196,0.0,11.0,65,0.00,,---,0.01,VWS V13.01,2013-01-27 17:21:00,
2013-01-27 12:22:00,39.3,28.5,30.54,SE,132,1.0,11.0,65,0.00,,---,0.01,VWS V13.01,2013-01-27 17:22:00,
2013-01-27 12:23:00,39.2,28.4,30.54,SE,132,0.0,11.0,65,0.00,,---,0.01,VWS V13.01,2013-01-27 17:23:00,
2013-01-27 12:25:00,39.2,28.4,30.54,SSE,164,0.0,11.0,65,0.00,,---,0.01,VWS V13.01,2013-01-27 17:25:00,
2013-01-27 12:26:00,39.2,28.4,30.54,SSE,148,1.0,11.0,65,0.00,,---,0.01,VWS V13.01,2013-01-27 17:26:00,
2013-01-27 12:27:00,39.1,28.7,30.54,SE,141,1.0,11.0,66,0.00,,---,0.01,VWS V13.01,2013-01-27 17:27:00,
2013-01-27 12:28:00,39.1,28.7,30.53,SE,132,4.0,11.0,66,0.00,,---,0.01,VWS V13.01,2013-01-27 17:28:00,
2013-01-27 12:30:00,39.1,28.7,30.53,East,95,2.0,11.0,66,0.00,,---,0.01,VWS V13.01,2013-01-27 17:30:00,
2013-01-27 12:31:00,39.0,28.6,30.53,East,95,0.0,0.0,66,0.00,,---,0.01,VWS V13.01,2013-01-27 17:31:00,
2013-01-27 12:32:00,38.9,28.1,30.53,East,95,0.0,0.0,65,0.00,,---,0.01,VWS V13.01,2013-01-27 17:32:00,
2013-01-27 12:33:00,38.9,28.1,30.53,East,95,0.0,0.0,65,0.00,,---,0.01,VWS V13.01,2013-01-27 17:33:00,
2013-01-27 12:35:00,38.9,28.9,30.52,SE,138,0.0,4.0,67,0.00,,---,0.01,VWS V13.01,2013-01-27 17:35:00,
2013-01-27 12:36:00,39.0,29.0,30.52,SE,138,0.0,4.0,67,0.00,,---,0.01,VWS V13.01,2013-01-27 17:36:00,
2013-01-27 12:37:00,39.1,29.1,30.52,SE,137,0.0,4.0,67,0.00,,---,0.01,VWS V13.01,2013-01-27 17:37:00,
2013-01-27 12:38:00,39.1,29.1,30.52,ESE,113,5.0,5.0,67,0.00,,---,0.01,VWS V13.01,2013-01-27 17:38:00,
2013-01-27 12:40:00,39.2,29.2,30.52,SSE,162,0.0,6.0,67,0.00,,---,0.01,VWS V13.01,2013-01-27 17:40:00,
2013-01-27 12:41:00,39.2,28.8,30.52,SSE,157,0.0,6.0,66,0.00,,---,0.01,VWS V13.01,2013-01-27 17:41:00,
2013-01-27 12:43:00,39.4,29.4,30.52,SE,144,3.0,6.0,67,0.00,,---,0.01,VWS V13.01,2013-01-27 17:43:00,
2013-01-27 12:45:00,39.7,29.7,30.51,SSE,167,6.0,9.0,67,0.00,,---,0.01,VWS V13.01,2013-01-27 17:45:00,
2013-01-27 12:46:00,39.8,29.4,30.51,SSW,192,4.0,9.0,66,0.00,,---,0.01,VWS V13.01,2013-01-27 17:46:00,
2013-01-27 12:48:00,39.9,29.5,30.51,SSW,194,3.0,10.0,66,0.00,,---,0.01,VWS V13.01,2013-01-27 17:48:00,
2013-01-27 12:50:00,40.1,29.7,30.51,SSE,157,4.0,10.0,66,0.00,,---,0.01,VWS V13.01,2013-01-27 17:50:00,
2013-01-27 12:51:00,40.1,29.7,30.51,East,79,2.0,10.0,66,0.00,,---,0.01,VWS V13.01,2013-01-27 17:51:00,
2013-01-27 12:53:00,40.2,29.4,30.51,East,87,0.0,10.0,65,0.00,,---,0.01,VWS V13.01,2013-01-27 17:53:00,
2013-01-27 12:55:00,40.3,29.5,30.51,SSE,166,0.0,10.0,65,0.00,,---,0.01,VWS V13.01,2013-01-27 17:55:00,
2013-01-27 12:57:00,40.4,29.6,30.50,SSE,166,0.0,10.0,65,0.00,,---,0.01,VWS V13.01,2013-01-27 17:57:00,
2013-01-27 12:59:00,40.4,29.6,30.50,ENE,68,0.0,10.0,65,0.00,,---,0.01,VWS V13.01,2013-01-27 17:59:00,
2013-01-27 13:00:00,40.4,29.2,30.50,SSE,161,7.0,10.0,64,0.00,,---,0.01,VWS V13.01,2013-01-27 18:00:00,
2013-01-27 13:02:00,40.3,29.1,30.50,SSW,202,0.0,5.0,64,0.00,,---,0.01,VWS V13.01,2013-01-27 18:02:00,
2013-01-27 13:04:00,40.3,29.1,30.50,ESE,119,0.0,6.0,64,0.00,,---,0.01,VWS V13.01,2013-01-27 18:04:00,
2013-01-27 13:06:00,40.4,29.6,30.50,SSE,147,0.0,6.0,65,0.00,,---,0.01,VWS V13.01,2013-01-27 18:06:00,
2013-01-27 13:07:00,40.5,30.0,30.50,ESE,120,3.0,6.0,66,0.00,,---,0.01,VWS V13.01,2013-01-27 18:07:00,
2013-01-27 13:09:00,40.5,29.7,30.51,ESE,103,0.0,6.0,65,0.00,,---,0.01,VWS V13.01,2013-01-27 18:09:00,
2013-01-27 13:11:00,40.7,29.9,30.51,South,188,0.0,6.0,65,0.00,,---,0.01,VWS V13.01,2013-01-27 18:11:00,
2013-01-27 13:12:00,40.7,29.9,30.51,SW,219,2.0,6.0,65,0.00,,---,0.01,VWS V13.01,2013-01-27 18:12:00,
2013-01-27 13:14:00,40.8,29.6,30.51,SW,219,0.0,6.0,64,0.00,,---,0.01,VWS V13.01,2013-01-27 18:14:00,
2013-01-27 13:16:00,41.0,29.4,30.51,SW,219,0.0,6.0,63,0.00,,---,0.01,VWS V13.01,2013-01-27 18:16:00,
2013-01-27 13:17:00,41.1,29.5,30.51,SW,219,0.0,6.0,63,0.00,,---,0.01,VWS V13.01,2013-01-27 18:17:00,
2013-01-27 13:19:00,41.1,29.9,30.51,ENE,62,3.0,6.0,64,0.00,,---,0.01,VWS V13.01,2013-01-27 18:19:00,
2013-01-27 13:21:00,41.3,29.7,30.51,ENE,61,0.0,6.0,63,0.00,,---,0.01,VWS V13.01,2013-01-27 18:21:00,
2013-01-27 13:22:00,41.3,29.7,30.51,ENE,61,0.0,6.0,63,0.00,,---,0.01,VWS V13.01,2013-01-27 18:22:00,
2013-01-27 13:24:00,41.4,29.4,30.52,ENE,61,0.0,6.0,62,0.00,,---,0.01,VWS V13.01,2013-01-27 18:24:00,
2013-01-27 13:26:00,41.5,29.5,30.52,SSE,149,2.0,6.0,62,0.00,,---,0.01,VWS V13.01,2013-01-27 18:26:00,
2013-01-27 13:27:00,41.6,29.6,30.52,SSE,151,3.0,6.0,62,0.00,,---,0.01,VWS V13.01,2013-01-27 18:27:00,
2013-01-27 13:29:00,41.6,29.2,30.52,South,169,0.0,6.0,61,0.00,,---,0.01,VWS V13.01,2013-01-27 18:29:00,
2013-01-27 13:30:00,41.6,29.2,30.52,SSE,158,1.0,6.0,61,0.00,,---,0.01,VWS V13.01,2013-01-27 18:30:00,
2013-01-27 13:31:00,41.7,29.3,30.52,SSW,206,3.0,3.0,61,0.00,,---,0.01,VWS V13.01,2013-01-27 18:31:00,
2013-01-27 13:32:00,41.8,29.4,30.52,SSW,207,0.0,4.0,61,0.00,,---,0.01,VWS V13.01,2013-01-27 18:32:00,
2013-01-27 13:34:00,41.8,29.4,30.51,WSW,241,0.0,4.0,61,0.00,,---,0.01,VWS V13.01,2013-01-27 18:34:00,
2013-01-27 13:35:00,41.9,29.5,30.51,WSW,241,0.0,4.0,61,0.00,,---,0.01,VWS V13.01,2013-01-27 18:35:00,
2013-01-27 13:36:00,42.0,29.5,30.51,SW,227,2.0,4.0,61,0.00,,---,0.01,VWS V13.01,2013-01-27 18:36:00,
2013-01-27 13:37:00,42.0,29.5,30.51,SW,221,0.0,4.0,61,0.00,,---,0.01,VWS V13.01,2013-01-27 18:37:00,
2013-01-27 13:40:00,42.1,29.6,30.50,NNE,19,4.0,7.0,61,0.00,,---,0.01,VWS V13.01,2013-01-27 18:40:00,
2013-01-27 13:41:00,42.2,29.7,30.50,SSE,150,1.0,7.0,61,0.00,,---,0.01,VWS V13.01,2013-01-27 18:41:00,
2013-01-27 13:42:00,42.3,29.8,30.50,SSE,150,1.0,7.0,61,0.00,,---,0.01,VWS V13.01,2013-01-27 18:42:00,
2013-01-27 13:45:00,42.3,29.8,30.50,SE,138,0.0,7.0,61,0.00,,---,0.01,VWS V13.01,2013-01-27 18:45:00,
2013-01-27 13:46:00,42.4,29.9,30.50,SSE,154,3.0,7.0,61,0.00,,---,0.01,VWS V13.01,2013-01-27 18:46:00,
2013-01-27 13:47:00,42.5,30.4,30.50,SSE,155,0.0,7.0,62,0.00,,---,0.01,VWS V13.01,2013-01-27 18:47:00,
2013-01-27 13:50:00,42.6,29.7,30.50,NE,42,0.0,7.0,60,0.00,,---,0.01,VWS V13.01,2013-01-27 18:50:00,
2013-01-27 13:52:00,42.6,29.7,30.50,ESE,117,2.0,7.0,60,0.00,,---,0.01,VWS V13.01,2013-01-27 18:52:00,
2013-01-27 13:55:00,42.6,29.3,30.50,SE,137,0.0,7.0,59,0.00,,---,0.01,VWS V13.01,2013-01-27 18:55:00,
2013-01-27 13:57:00,42.6,29.3,30.50,SE,143,0.0,7.0,59,0.00,,---,0.01,VWS V13.01,2013-01-27 18:57:00,
2013-01-27 14:00:00,42.6,29.3,30.50,SE,143,0.0,7.0,59,0.00,,---,0.01,VWS V13.01,2013-01-27 19:00:00,
2013-01-27 14:02:00,42.6,29.7,30.50,SE,142,0.0,0.0,60,0.00,,---,0.01,VWS V13.01,2013-01-27 19:02:00,
2013-01-27 14:05:00,42.6,29.3,30.50,ENE,70,0.0,3.0,59,0.00,,---,0.01,VWS V13.01,2013-01-27 19:05:00,
2013-01-27 14:07:00,42.6,29.3,30.50,East,79,1.0,3.0,59,0.00,,---,0.01,VWS V13.01,2013-01-27 19:07:00,
2013-01-27 14:10:00,42.6,29.3,30.50,SSW,207,5.0,5.0,59,0.00,,---,0.01,VWS V13.01,2013-01-27 19:10:00,
2013-01-27 14:12:00,42.7,29.4,30.50,SSW,192,2.0,5.0,59,0.00,,---,0.01,VWS V13.01,2013-01-27 19:12:00,
2013-01-27 14:15:00,42.8,29.9,30.50,WSW,245,3.0,5.0,60,0.00,,---,0.01,VWS V13.01,2013-01-27 19:15:00,
2013-01-27 14:17:00,42.9,30.0,30.50,WSW,245,0.0,5.0,60,0.00,,---,0.01,VWS V13.01,2013-01-27 19:17:00,
2013-01-27 14:18:00,42.9,30.0,30.50,WSW,254,4.0,5.0,60,0.00,,---,0.01,VWS V13.01,2013-01-27 19:18:00,
2013-01-27 14:20:00,43.0,29.7,30.50,West,274,2.0,6.0,59,0.00,,---,0.01,VWS V13.01,2013-01-27 19:20:00,
2013-01-27 14:22:00,43.1,29.8,30.49,West,270,0.0,6.0,59,0.00,,---,0.01,VWS V13.01,2013-01-27 19:22:00,
2013-01-27 14:23:00,43.1,29.8,30.49,West,269,0.0,6.0,59,0.00,,---,0.01,VWS V13.01,2013-01-27 19:23:00,
2013-01-27 14:25:00,43.2,29.9,30.49,West,267,0.0,6.0,59,0.00,,---,0.01,VWS V13.01,2013-01-27 19:25:00,
2013-01-27 14:27:00,43.3,30.4,30.48,SW,217,3.0,6.0,60,0.00,,---,0.01,VWS V13.01,2013-01-27 19:27:00,
2013-01-27 14:28:00,43.3,30.0,30.48,SSE,163,2.0,6.0,59,0.00,,---,0.01,VWS V13.01,2013-01-27 19:28:00,
2013-01-27 14:30:00,43.4,30.0,30.49,SSW,207,0.0,6.0,59,0.00,,---,0.01,VWS V13.01,2013-01-27 19:30:00,
2013-01-27 14:32:00,43.4,30.0,30.49,SSE,148,0.0,1.0,59,0.00,,---,0.01,VWS V13.01,2013-01-27 19:32:00,
2013-01-27 14:33:00,43.5,30.1,30.49,SSE,148,0.0,1.0,59,0.00,,---,0.01,VWS V13.01,2013-01-27 19:33:00,
2013-01-27 14:35:00,43.5,29.7,30.49,SSE,148,0.0,1.0,58,0.00,,---,0.01,VWS V13.01,2013-01-27 19:35:00,
2013-01-27 14:37:00,43.6,30.2,30.49,ENE,76,0.0,2.0,59,0.00,,---,0.01,VWS V13.01,2013-01-27 19:37:00,
2013-01-27 14:38:00,43.6,29.8,30.49,SSE,156,2.0,3.0,58,0.00,,---,0.01,VWS V13.01,2013-01-27 19:38:00,
2013-01-27 14:40:00,43.5,29.7,30.49,South,170,0.0,3.0,58,0.00,,---,0.01,VWS V13.01,2013-01-27 19:40:00,
2013-01-27 14:42:00,43.5,29.7,30.49,South,170,0.0,3.0,58,0.00,,---,0.01,VWS V13.01,2013-01-27 19:42:00,
2013-01-27 14:43:00,43.5,29.7,30.49,South,170,0.0,3.0,58,0.00,,---,0.01,VWS V13.01,2013-01-27 19:43:00,
2013-01-27 14:45:00,43.5,29.7,30.49,South,170,0.0,3.0,58,0.00,,---,0.01,VWS V13.01,2013-01-27 19:45:00,
2013-01-27 14:46:00,43.5,29.7,30.49,South,170,0.0,3.0,58,0.00,,---,0.01,VWS V13.01,2013-01-27 19:46:00,
2013-01-27 14:48:00,43.5,29.7,30.49,ENE,65,2.0,4.0,58,0.00,,---,0.01,VWS V13.01,2013-01-27 19:48:00,
2013-01-27 14:50:00,43.5,29.7,30.49,SE,133,0.0,7.0,58,0.00,,---,0.01,VWS V13.01,2013-01-27 19:50:00,
2013-01-27 14:51:00,43.5,29.7,30.49,SE,133,0.0,7.0,58,0.00,,---,0.01,VWS V13.01,2013-01-27 19:51:00,
2013-01-27 14:53:00,43.5,30.1,30.49,East,100,1.0,7.0,59,0.00,,---,0.01,VWS V13.01,2013-01-27 19:53:00,
2013-01-27 14:56:00,43.4,30.0,30.49,East,99,3.0,7.0,59,0.00,,---,0.01,VWS V13.01,2013-01-27 19:56:00,
2013-01-27 14:58:00,43.4,30.0,30.48,SSE,157,5.0,7.0,59,0.00,,---,0.01,VWS V13.01,2013-01-27 19:58:00,
2013-01-27 15:01:00,43.3,30.0,30.48,SE,129,1.0,7.0,59,0.00,,---,0.01,VWS V13.01,2013-01-27 20:01:00,
2013-01-27 15:03:00,43.3,30.0,30.48,SE,138,1.0,3.0,59,0.00,,---,0.01,VWS V13.01,2013-01-27 20:03:00,
2013-01-27 15:04:00,43.3,30.0,30.48,South,180,1.0,5.0,59,0.00,,---,0.01,VWS V13.01,2013-01-27 20:04:00,
2013-01-27 15:06:00,43.2,29.9,30.49,SSW,200,2.0,5.0,59,0.00,,---,0.01,VWS V13.01,2013-01-27 20:06:00,
2013-01-27 15:08:00,43.2,29.9,30.49,SSW,196,0.0,5.0,59,0.00,,---,0.01,VWS V13.01,2013-01-27 20:08:00,
2013-01-27 15:09:00,43.2,29.9,30.49,South,181,2.0,5.0,59,0.00,,---,0.01,VWS V13.01,2013-01-27 20:09:00,
2013-01-27 15:11:00,43.1,29.8,30.49,SSE,163,2.0,6.0,59,0.00,,---,0.01,VWS V13.01,2013-01-27 20:11:00,
2013-01-27 15:13:00,43.0,29.7,30.49,SSW,206,0.0,6.0,59,0.00,,---,0.01,VWS V13.01,2013-01-27 20:13:00,
2013-01-27 15:14:00,42.9,29.6,30.49,SSE,163,5.0,6.0,59,0.00,,---,0.01,VWS V13.01,2013-01-27 20:14:00,
2013-01-27 15:16:00,42.8,29.5,30.48,SSE,160,0.0,6.0,59,0.00,,---,0.01,VWS V13.01,2013-01-27 20:16:00,
2013-01-27 15:18:00,42.8,29.9,30.49,SSE,160,0.0,6.0,60,0.00,,---,0.01,VWS V13.01,2013-01-27 20:18:00,
2013-01-27 15:19:00,42.8,29.9,30.49,SSW,204,3.0,6.0,60,0.00,,---,0.01,VWS V13.01,2013-01-27 20:19:00,
2013-01-27 15:21:00,42.8,29.9,30.49,SSW,204,0.0,6.0,60,0.00,,---,0.01,VWS V13.01,2013-01-27 20:21:00,
2013-01-27 15:23:00,42.8,29.9,30.49,SSW,207,0.0,6.0,60,0.00,,---,0.01,VWS V13.01,2013-01-27 20:23:00,
2013-01-27 15:24:00,42.8,29.9,30.49,SSW,207,0.0,6.0,60,0.00,,---,0.01,VWS V13.01,2013-01-27 20:24:00,
2013-01-27 15:26:00,42.7,29.8,30.49,SSW,213,3.0,6.0,60,0.00,,---,0.01,VWS V13.01,2013-01-27 20:26:00,
2013-01-27 15:28:00,42.7,29.8,30.48,SW,214,0.0,6.0,60,0.00,,---,0.01,VWS V13.01,2013-01-27 20:28:00,
2013-01-27 15:29:00,42.7,29.8,30.48,SSW,213,0.0,6.0,60,0.00,,---,0.01,VWS V13.01,2013-01-27 20:29:00,
2013-01-27 15:31:00,42.7,29.8,30.48,SSW,213,0.0,0.0,60,0.00,,---,0.01,VWS V13.01,2013-01-27 20:31:00,
2013-01-27 15:33:00,42.7,29.8,30.48,SSE,148,2.0,2.0,60,0.00,,---,0.01,VWS V13.01,2013-01-27 20:33:00,
2013-01-27 15:34:00,42.7,29.8,30.48,SSE,150,0.0,2.0,60,0.00,,---,0.01,VWS V13.01,2013-01-27 20:34:00,
2013-01-27 15:36:00,42.7,29.8,30.48,SSE,159,1.0,2.0,60,0.00,,---,0.01,VWS V13.01,2013-01-27 20:36:00,
2013-01-27 15:38:00,42.7,29.8,30.47,SSE,160,0.0,3.0,60,0.00,,---,0.01,VWS V13.01,2013-01-27 20:38:00,
2013-01-27 15:39:00,42.7,29.8,30.47,SSE,160,0.0,3.0,60,0.00,,---,0.01,VWS V13.01,2013-01-27 20:39:00,
2013-01-27 15:41:00,42.6,29.3,30.47,SSE,160,0.0,3.0,59,0.00,,---,0.01,VWS V13.01,2013-01-27 20:41:00,
2013-01-27 15:43:00,42.6,29.7,30.48,SSE,160,0.0,3.0,60,0.00,,---,0.01,VWS V13.01,2013-01-27 20:43:00,
2013-01-27 15:44:00,42.6,29.7,30.47,SSE,149,0.0,3.0,60,0.00,,---,0.01,VWS V13.01,2013-01-27 20:44:00,
2013-01-27 15:46:00,42.6,29.7,30.47,SSE,150,0.0,3.0,60,0.00,,---,0.01,VWS V13.01,2013-01-27 20:46:00,
2013-01-27 15:47:00,42.6,29.7,30.47,SSE,150,0.0,3.0,60,0.00,,---,0.01,VWS V13.01,2013-01-27 20:47:00,
2013-01-27 15:48:00,42.5,29.6,30.47,SE,142,2.0,3.0,60,0.00,,---,0.01,VWS V13.01,2013-01-27 20:48:00,
2013-01-27 15:49:00,42.6,29.7,30.47,SE,143,0.0,3.0,60,0.00,,---,0.01,VWS V13.01,2013-01-27 20:49:00,
2013-01-27 15:51:00,42.5,29.6,30.47,SE,142,0.0,3.0,60,0.00,,---,0.01,VWS V13.01,2013-01-27 20:51:00,
2013-01-27 15:52:00,42.5,29.6,30.47,SE,143,0.0,3.0,60,0.00,,---,0.01,VWS V13.01,2013-01-27 20:52:00,
2013-01-27 15:54:00,42.5,29.6,30.47,SE,143,0.0,3.0,60,0.00,,---,0.01,VWS V13.01,2013-01-27 20:54:00,
2013-01-27 15:56:00,42.4,29.5,30.47,SE,143,0.0,3.0,60,0.00,,---,0.01,VWS V13.01,2013-01-27 20:56:00,
2013-01-27 15:57:00,42.4,29.5,30.47,SE,142,0.0,3.0,60,0.00,,---,0.01,VWS V13.01,2013-01-27 20:57:00,
2013-01-27 15:59:00,42.4,29.5,30.48,SE,143,2.0,3.0,60,0.00,,---,0.01,VWS V13.01,2013-01-27 20:59:00,
2013-01-27 16:01:00,42.3,29.4,30.48,SE,138,0.0,0.0,60,0.00,,---,0.01,VWS V13.01,2013-01-27 21:01:00,
2013-01-27 16:02:00,42.3,29.4,30.48,SSW,199,3.0,3.0,60,0.00,,---,0.01,VWS V13.01,2013-01-27 21:02:00,
2013-01-27 16:04:00,42.3,29.4,30.48,SSW,209,1.0,3.0,60,0.00,,---,0.01,VWS V13.01,2013-01-27 21:04:00,
2013-01-27 16:06:00,42.2,29.3,30.48,WSW,246,0.0,4.0,60,0.00,,---,0.01,VWS V13.01,2013-01-27 21:06:00,
2013-01-27 16:07:00,42.2,29.3,30.48,WSW,246,0.0,4.0,60,0.00,,---,0.01,VWS V13.01,2013-01-27 21:07:00,
2013-01-27 16:09:00,42.2,29.7,30.48,WSW,246,0.0,4.0,61,0.00,,---,0.01,VWS V13.01,2013-01-27 21:09:00,
2013-01-27 16:11:00,42.1,29.2,30.48,WSW,238,0.0,4.0,60,0.00,,---,0.01,VWS V13.01,2013-01-27 21:11:00,
2013-01-27 16:12:00,42.1,29.2,30.48,WSW,238,0.0,4.0,60,0.00,,---,0.01,VWS V13.01,2013-01-27 21:12:00,
2013-01-27 16:14:00,42.1,29.6,30.48,SW,219,3.0,4.0,61,0.00,,---,0.01,VWS V13.01,2013-01-27 21:14:00,
2013-01-27 16:15:00,42.0,29.5,30.48,SW,218,2.0,4.0,61,0.00,,---,0.01,VWS V13.01,2013-01-27 21:15:00,
2013-01-27 16:17:00,42.0,29.1,30.48,SW,218,0.0,4.0,60,0.00,,---,0.01,VWS V13.01,2013-01-27 21:17:00,
2013-01-27 16:19:00,41.9,29.5,30.48,SW,218,2.0,4.0,61,0.00,,---,0.01,VWS V13.01,2013-01-27 21:19:00,
2013-01-27 16:20:00,41.9,29.5,30.49,SW,218,2.0,4.0,61,0.00,,---,0.01,VWS V13.01,2013-01-27 21:20:00,
2013-01-27 16:22:00,41.8,29.4,30.49,SW,218,1.0,4.0,61,0.00,,---,0.01,VWS V13.01,2013-01-27 21:22:00,
2013-01-27 16:24:00,41.8,29.4,30.49,SW,218,0.0,4.0,61,0.00,,---,0.01,VWS V13.01,2013-01-27 21:24:00,
2013-01-27 16:25:00,41.7,29.3,30.49,SW,218,0.0,4.0,61,0.00,,---,0.01,VWS V13.01,2013-01-27 21:25:00,
2013-01-27 16:27:00,41.6,29.2,30.49,SW,218,0.0,4.0,61,0.00,,---,0.01,VWS V13.01,2013-01-27 21:27:00,
2013-01-27 16:29:00,41.6,29.6,30.49,SW,218,0.0,4.0,62,0.00,,---,0.01,VWS V13.01,2013-01-27 21:29:00,
2013-01-27 16:30:00,41.6,29.6,30.49,SW,217,0.0,4.0,62,0.00,,---,0.01,VWS V13.01,2013-01-27 21:30:00,
2013-01-27 16:32:00,41.6,29.6,30.49,SW,218,0.0,0.0,62,0.00,,---,0.01,VWS V13.01,2013-01-27 21:32:00,
2013-01-27 16:34:00,41.5,29.5,30.49,SW,218,0.0,3.0,62,0.00,,---,0.01,VWS V13.01,2013-01-27 21:34:00,
2013-01-27 16:35:00,41.5,29.5,30.49,SW,218,0.0,3.0,62,0.00,,---,0.01,VWS V13.01,2013-01-27 21:35:00,
2013-01-27 16:37:00,41.5,29.5,30.49,SW,218,0.0,3.0,62,0.00,,---,0.01,VWS V13.01,2013-01-27 21:37:00,
2013-01-27 16:39:00,41.4,29.4,30.49,SW,218,0.0,3.0,62,0.00,,---,0.01,VWS V13.01,2013-01-27 21:39:00,
2013-01-27 16:40:00,41.4,29.8,30.49,SW,218,1.0,3.0,63,0.00,,---,0.01,VWS V13.01,2013-01-27 21:40:00,
2013-01-27 16:42:00,41.4,29.8,30.49,SW,218,0.0,3.0,63,0.00,,---,0.01,VWS V13.01,2013-01-27 21:42:00,
2013-01-27 16:44:00,41.3,29.7,30.49,SW,218,0.0,3.0,63,0.00,,---,0.01,VWS V13.01,2013-01-27 21:44:00,
2013-01-27 16:45:00,41.3,29.7,30.49,SW,218,0.0,3.0,63,0.00,,---,0.01,VWS V13.01,2013-01-27 21:45:00,
2013-01-27 16:47:00,41.3,29.7,30.49,SW,218,0.0,3.0,63,0.00,,---,0.01,VWS V13.01,2013-01-27 21:47:00,
2013-01-27 16:49:00,41.2,29.6,30.49,SW,218,0.0,3.0,63,0.00,,---,0.01,VWS V13.01,2013-01-27 21:49:00,
2013-01-27 16:50:00,41.2,29.6,30.49,SW,217,3.0,3.0,63,0.00,,---,0.01,VWS V13.01,2013-01-27 21:50:00,
2013-01-27 16:52:00,41.1,29.5,30.49,SW,217,0.0,4.0,63,0.00,,---,0.01,VWS V13.01,2013-01-27 21:52:00,
2013-01-27 16:53:00,41.1,29.5,30.49,SW,217,0.0,4.0,63,0.00,,---,0.01,VWS V13.01,2013-01-27 21:53:00,
2013-01-27 16:55:00,41.1,29.5,30.49,SW,217,0.0,4.0,63,0.00,,---,0.01,VWS V13.01,2013-01-27 21:55:00,
2013-01-27 16:57:00,41.1,29.5,30.49,SW,217,0.0,4.0,63,0.00,,---,0.01,VWS V13.01,2013-01-27 21:57:00,
2013-01-27 16:58:00,41.0,29.4,30.49,SW,217,0.0,4.0,63,0.00,,---,0.01,VWS V13.01,2013-01-27 21:58:00,
2013-01-27 17:00:00,41.0,29.0,30.49,SW,217,0.0,4.0,62,0.00,,---,0.01,VWS V13.01,2013-01-27 22:00:00,
2013-01-27 17:02:00,40.9,28.9,30.49,SW,217,0.0,0.0,62,0.00,,---,0.01,VWS V13.01,2013-01-27 22:02:00,
2013-01-27 17:03:00,40.9,28.9,30.49,SW,217,0.0,0.0,62,0.00,,---,0.01,VWS V13.01,2013-01-27 22:03:00,
2013-01-27 17:05:00,40.9,28.9,30.49,SW,217,0.0,0.0,62,0.00,,---,0.01,VWS V13.01,2013-01-27 22:05:00,
2013-01-27 17:07:00,40.9,28.9,30.49,SW,217,0.0,0.0,62,0.00,,---,0.01,VWS V13.01,2013-01-27 22:07:00,
2013-01-27 17:08:00,40.9,28.9,30.50,SW,217,0.0,0.0,62,0.00,,---,0.01,VWS V13.01,2013-01-27 22:08:00,
2013-01-27 17:10:00,40.8,29.2,30.49,SW,217,0.0,1.0,63,0.00,,---,0.01,VWS V13.01,2013-01-27 22:10:00,
2013-01-27 17:12:00,40.8,29.2,30.49,SW,217,0.0,1.0,63,0.00,,---,0.01,VWS V13.01,2013-01-27 22:12:00,
2013-01-27 17:13:00,40.8,29.2,30.49,SW,217,0.0,1.0,63,0.00,,---,0.01,VWS V13.01,2013-01-27 22:13:00,
2013-01-27 17:15:00,40.7,29.1,30.49,SW,217,0.0,1.0,63,0.00,,---,0.01,VWS V13.01,2013-01-27 22:15:00,
2013-01-27 17:17:00,40.7,29.1,30.49,SW,217,2.0,2.0,63,0.00,,---,0.01,VWS V13.01,2013-01-27 22:17:00,
2013-01-27 17:18:00,40.7,29.1,30.49,SW,217,0.0,2.0,63,0.00,,---,0.01,VWS V13.01,2013-01-27 22:18:00,
2013-01-27 17:20:00,40.6,29.0,30.49,SW,217,0.0,2.0,63,0.00,,---,0.01,VWS V13.01,2013-01-27 22:20:00,
2013-01-27 17:22:00,40.6,29.4,30.49,SW,217,0.0,2.0,64,0.00,,---,0.01,VWS V13.01,2013-01-27 22:22:00,
2013-01-27 17:23:00,40.6,29.4,30.49,SW,217,0.0,2.0,64,0.00,,---,0.01,VWS V13.01,2013-01-27 22:23:00,
2013-01-27 17:25:00,40.5,29.3,30.49,SW,217,3.0,3.0,64,0.00,,---,0.01,VWS V13.01,2013-01-27 22:25:00,
2013-01-27 17:26:00,40.5,29.3,30.49,SW,217,2.0,3.0,64,0.00,,---,0.01,VWS V13.01,2013-01-27 22:26:00,
2013-01-27 17:27:00,40.5,29.3,30.49,SW,217,0.0,3.0,64,0.00,,---,0.01,VWS V13.01,2013-01-27 22:27:00,
2013-01-27 17:28:00,40.5,29.3,30.49,SW,217,0.0,3.0,64,0.00,,---,0.01,VWS V13.01,2013-01-27 22:28:00,
2013-01-27 17:31:00,40.4,29.2,30.49,SW,217,0.0,3.0,64,0.00,,---,0.01,VWS V13.01,2013-01-27 22:31:00,
2013-01-27 17:32:00,40.4,29.2,30.48,SW,217,0.0,0.0,64,0.00,,---,0.01,VWS V13.01,2013-01-27 22:32:00,
2013-01-27 17:33:00,40.4,29.2,30.49,SW,217,0.0,0.0,64,0.00,,---,0.01,VWS V13.01,2013-01-27 22:33:00,
2013-01-27 17:36:00,40.3,29.1,30.49,SW,217,0.0,1.0,64,0.00,,---,0.01,VWS V13.01,2013-01-27 22:36:00,
2013-01-27 17:37:00,40.3,29.1,30.49,SW,217,3.0,3.0,64,0.00,,---,0.01,VWS V13.01,2013-01-27 22:37:00,
2013-01-27 17:38:00,40.3,29.1,30.49,SW,217,4.0,4.0,64,0.00,,---,0.01,VWS V13.01,2013-01-27 22:38:00,
2013-01-27 17:41:00,40.3,29.1,30.49,SW,217,0.0,4.0,64,0.00,,---,0.01,VWS V13.01,2013-01-27 22:41:00,
2013-01-27 17:43:00,40.2,29.0,30.49,SW,217,0.0,4.0,64,0.00,,---,0.01,VWS V13.01,2013-01-27 22:43:00,
2013-01-27 17:46:00,40.1,29.3,30.49,SW,217,0.0,4.0,65,0.00,,---,0.01,VWS V13.01,2013-01-27 22:46:00,
2013-01-27 17:48:00,40.1,29.3,30.50,SW,217,0.0,4.0,65,0.00,,---,0.01,VWS V13.01,2013-01-27 22:48:00,
2013-01-27 17:51:00,40.1,29.3,30.49,SW,217,0.0,4.0,65,0.00,,---,0.01,VWS V13.01,2013-01-27 22:51:00,
2013-01-27 17:53:00,40.0,29.2,30.49,SW,217,0.0,4.0,65,0.00,,---,0.01,VWS V13.01,2013-01-27 22:53:00,
2013-01-27 17:56:00,39.9,29.1,30.49,SSW,209,3.0,5.0,65,0.00,,---,0.01,VWS V13.01,2013-01-27 22:56:00,
2013-01-27 17:58:00,39.9,29.1,30.49,SSW,207,0.0,5.0,65,0.00,,---,0.01,VWS V13.01,2013-01-27 22:58:00,
2013-01-27 17:59:00,39.9,29.1,30.49,ESE,121,0.0,5.0,65,0.00,,---,0.01,VWS V13.01,2013-01-27 22:59:00,
2013-01-27 18:01:00,39.8,29.0,30.49,ESE,123,0.0,0.0,65,0.00,,---,0.01,VWS V13.01,2013-01-27 23:01:00,
2013-01-27 18:03:00,39.8,29.4,30.49,SE,144,4.0,4.0,66,0.00,,---,0.01,VWS V13.01,2013-01-27 23:03:00,
2013-01-27 18:04:00,39.8,29.4,30.49,SSE,159,3.0,6.0,66,0.00,,---,0.01,VWS V13.01,2013-01-27 23:04:00,
2013-01-27 18:07:00,39.7,28.9,30.49,SSE,151,3.0,6.0,65,0.00,,---,0.01,VWS V13.01,2013-01-27 23:07:00,
2013-01-27 18:08:00,39.7,29.3,30.49,SE,141,0.0,6.0,66,0.00,,---,0.01,VWS V13.01,2013-01-27 23:08:00,
2013-01-27 18:09:00,39.6,29.2,30.49,ESE,103,2.0,6.0,66,0.00,,---,0.01,VWS V13.01,2013-01-27 23:09:00,
2013-01-27 18:12:00,39.6,29.2,30.48,ESE,121,0.0,6.0,66,0.00,,---,0.01,VWS V13.01,2013-01-27 23:12:00,
2013-01-27 18:13:00,39.5,29.1,30.48,South,173,1.0,6.0,66,0.00,,---,0.01,VWS V13.01,2013-01-27 23:13:00,
2013-01-27 18:14:00,39.5,29.1,30.49,South,171,1.0,6.0,66,0.00,,---,0.01,VWS V13.01,2013-01-27 23:14:00,
2013-01-27 18:17:00,39.5,29.1,30.49,SE,128,0.0,6.0,66,0.00,,---,0.01,VWS V13.01,2013-01-27 23:17:00,
2013-01-27 18:18:00,39.4,29.0,30.50,SE,130,0.0,6.0,66,0.00,,---,0.01,VWS V13.01,2013-01-27 23:18:00,
2013-01-27 18:19:00,39.4,29.0,30.50,SE,130,0.0,6.0,66,0.00,,---,0.01,VWS V13.01,2013-01-27 23:19:00,
2013-01-27 18:22:00,39.3,28.9,30.50,South,176,2.0,6.0,66,0.00,,---,0.01,VWS V13.01,2013-01-27 23:22:00,
2013-01-27 18:23:00,39.3,28.9,30.50,South,176,0.0,6.0,66,0.00,,---,0.01,VWS V13.01,2013-01-27 23:23:00,
2013-01-27 18:24:00,39.3,28.9,30.50,South,176,0.0,6.0,66,0.00,,---,0.01,VWS V13.01,2013-01-27 23:24:00,
2013-01-27 18:27:00,39.3,28.9,30.50,South,176,0.0,6.0,66,0.00,,---,0.01,VWS V13.01,2013-01-27 23:27:00,
2013-01-27 18:28:00,39.3,28.9,30.50,SSE,148,3.0,6.0,66,0.00,,---,0.01,VWS V13.01,2013-01-27 23:28:00,
2013-01-27 18:29:00,39.2,28.8,30.50,SE,145,0.0,6.0,66,0.00,,---,0.01,VWS V13.01,2013-01-27 23:29:00,
2013-01-27 18:32:00,39.2,28.8,30.50,SE,146,3.0,4.0,66,0.00,,---,0.01,VWS V13.01,2013-01-27 23:32:00,
2013-01-27 18:33:00,39.2,28.8,30.50,SE,145,4.0,4.0,66,0.00,,---,0.01,VWS V13.01,2013-01-27 23:33:00,
2013-01-27 18:34:00,39.2,28.8,30.50,South,172,2.0,4.0,66,0.00,,---,0.01,VWS V13.01,2013-01-27 23:34:00,
2013-01-27 18:37:00,39.1,28.7,30.50,SSE,167,0.0,7.0,66,0.00,,---,0.01,VWS V13.01,2013-01-27 23:37:00,
2013-01-27 18:39:00,39.1,28.7,30.50,SSE,163,3.0,7.0,66,0.00,,---,0.01,VWS V13.01,2013-01-27 23:39:00,
2013-01-27 18:40:00,39.1,28.7,30.50,South,173,0.0,7.0,66,0.00,,---,0.01,VWS V13.01,2013-01-27 23:40:00,
2013-01-27 18:42:00,39.0,28.6,30.50,South,182,4.0,7.0,66,0.00,,---,0.01,VWS V13.01,2013-01-27 23:42:00,
2013-01-27 18:43:00,39.0,28.6,30.50,South,181,1.0,7.0,66,0.00,,---,0.01,VWS V13.01,2013-01-27 23:43:00,
2013-01-27 18:44:00,39.0,28.6,30.50,South,182,0.0,7.0,66,0.00,,---,0.01,VWS V13.01,2013-01-27 23:44:00,
2013-01-27 18:45:00,39.0,28.6,30.50,SE,144,4.0,7.0,66,0.00,,---,0.01,VWS V13.01,2013-01-27 23:45:00,
2013-01-27 18:47:00,38.9,28.5,30.50,South,175,0.0,7.0,66,0.00,,---,0.01,VWS V13.01,2013-01-27 23:47:00,
2013-01-27 18:48:00,38.9,28.5,30.50,South,175,0.0,7.0,66,0.00,,---,0.01,VWS V13.01,2013-01-27 23:48:00,
2013-01-27 18:49:00,38.9,28.5,30.50,South,175,0.0,7.0,66,0.00,,---,0.01,VWS V13.01,2013-01-27 23:49:00,
2013-01-27 18:50:00,38.9,28.9,30.50,SSW,205,3.0,7.0,67,0.00,,---,0.01,VWS V13.01,2013-01-27 23:50:00,
2013-01-27 18:52:00,38.9,28.5,30.50,South,173,0.0,7.0,66,0.00,,---,0.01,VWS V13.01,2013-01-27 23:52:00,
2013-01-27 18:53:00,38.9,28.5,30.50,South,174,0.0,7.0,66,0.00,,---,0.01,VWS V13.01,2013-01-27 23:53:00,
2013-01-27 18:54:00,38.9,28.5,30.50,South,169,2.0,7.0,66,0.00,,---,0.01,VWS V13.01,2013-01-27 23:54:00,
2013-01-27 18:55:00,38.8,28.4,30.50,South,177,0.0,7.0,66,0.00,,---,0.01,VWS V13.01,2013-01-27 23:55:00,
2013-01-27 18:57:00,38.8,28.4,30.50,South,178,0.0,7.0,66,0.00,,---,0.01,VWS V13.01,2013-01-27 23:57:00,
2013-01-27 18:58:00,38.8,28.4,30.50,South,178,0.0,7.0,66,0.00,,---,0.01,VWS V13.01,2013-01-27 23:58:00,
2013-01-27 18:59:00,38.8,28.4,30.50,South,178,0.0,7.0,66,0.00,,---,0.01,VWS V13.01,2013-01-27 23:59:00,
2013-01-27 19:00:00,38.8,28.4,30.50,South,178,0.0,7.0,66,0.00,,---,0.01,VWS V13.01,2013-01-28 00:00:00,
2013-01-27 19:03:00,38.8,28.4,30.51,South,183,6.0,7.0,66,0.00,,---,0.01,VWS V13.01,2013-01-28 00:03:00,
2013-01-27 19:04:00,38.7,28.3,30.50,South,186,1.0,7.0,66,0.00,,---,0.01,VWS V13.01,2013-01-28 00:04:00,
2013-01-27 19:05:00,38.7,28.3,30.50,SSE,156,2.0,7.0,66,0.00,,---,0.01,VWS V13.01,2013-01-28 00:05:00,
2013-01-27 19:07:00,38.7,28.3,30.50,SSW,192,0.0,7.0,66,0.00,,---,0.01,VWS V13.01,2013-01-28 00:07:00,
2013-01-27 19:08:00,38.7,28.3,30.50,SSE,163,3.0,7.0,66,0.00,,---,0.01,VWS V13.01,2013-01-28 00:08:00,
2013-01-27 19:10:00,38.6,28.2,30.50,SSE,152,0.0,7.0,66,0.00,,---,0.01,VWS V13.01,2013-01-28 00:10:00,
2013-01-27 19:13:00,38.6,28.6,30.50,South,173,0.0,7.0,67,0.00,,---,0.01,VWS V13.01,2013-01-28 00:13:00,
2013-01-27 19:14:00,38.6,28.6,30.50,SSE,155,5.0,7.0,67,0.00,,---,0.01,VWS V13.01,2013-01-28 00:14:00,
2013-01-27 19:15:00,38.6,28.6,30.50,SSE,160,2.0,7.0,67,0.00,,---,0.01,VWS V13.01,2013-01-28 00:15:00,
2013-01-27 19:18:00,38.5,28.5,30.49,SSE,165,2.0,7.0,67,0.00,,---,0.01,VWS V13.01,2013-01-28 00:18:00,
2013-01-27 19:19:00,38.5,28.5,30.49,SSE,166,1.0,7.0,67,0.00,,---,0.01,VWS V13.01,2013-01-28 00:19:00,
2013-01-27 19:20:00,38.5,28.5,30.49,SSE,165,0.0,7.0,67,0.00,,---,0.01,VWS V13.01,2013-01-28 00:20:00,
2013-01-27 19:23:00,38.4,28.4,30.49,SSE,160,0.0,7.0,67,0.00,,---,0.01,VWS V13.01,2013-01-28 00:23:00,
2013-01-27 19:24:00,38.4,28.4,30.49,SSE,161,2.0,7.0,67,0.00,,---,0.01,VWS V13.01,2013-01-28 00:24:00,
2013-01-27 19:25:00,38.4,28.4,30.49,SSE,161,0.0,7.0,67,0.00,,---,0.01,VWS V13.01,2013-01-28 00:25:00,
2013-01-27 19:28:00,38.4,28.4,30.48,SSE,148,2.0,7.0,67,0.00,,---,0.01,VWS V13.01,2013-01-28 00:28:00,
2013-01-27 19:29:00,38.3,28.3,30.49,SSE,154,1.0,7.0,67,0.00,,---,0.01,VWS V13.01,2013-01-28 00:29:00,
2013-01-27 19:30:00,38.3,28.3,30.48,SSE,153,2.0,7.0,67,0.00,,---,0.01,VWS V13.01,2013-01-28 00:30:00,
2013-01-27 19:31:00,38.3,28.3,30.48,SSW,192,2.0,5.0,67,0.00,,---,0.01,VWS V13.01,2013-01-28 00:31:00,
2013-01-27 19:33:00,38.3,28.3,30.49,SSW,194,2.0,5.0,67,0.00,,---,0.01,VWS V13.01,2013-01-28 00:33:00,
2013-01-27 19:34:00,38.3,28.3,30.49,SSE,155,4.0,5.0,67,0.00,,---,0.01,VWS V13.01,2013-01-28 00:34:00,
2013-01-27 19:35:00,38.2,28.2,30.49,South,187,7.0,7.0,67,0.00,,---,0.01,VWS V13.01,2013-01-28 00:35:00,
2013-01-27 19:36:00,38.2,28.2,30.49,SSE,152,2.0,8.0,67,0.00,,---,0.01,VWS V13.01,2013-01-28 00:36:00,
2013-01-27 19:38:00,38.2,28.6,30.49,SSE,148,3.0,8.0,68,0.00,,---,0.01,VWS V13.01,2013-01-28 00:38:00,
2013-01-27 19:39:00,38.2,28.6,30.49,SSE,167,2.0,8.0,68,0.00,,---,0.01,VWS V13.01,2013-01-28 00:39:00,
2013-01-27 19:40:00,38.2,28.6,30.49,SSE,167,1.0,8.0,68,0.00,,---,0.01,VWS V13.01,2013-01-28 00:40:00,
2013-01-27 19:41:00,38.2,28.6,30.49,South,174,0.0,8.0,68,0.00,,---,0.01,VWS V13.01,2013-01-28 00:41:00,
2013-01-27 19:43:00,38.1,28.5,30.49,South,174,0.0,8.0,68,0.00,,---,0.01,VWS V13.01,2013-01-28 00:43:00,
2013-01-27 19:44:00,38.1,28.5,30.49,South,173,0.0,8.0,68,0.00,,---,0.01,VWS V13.01,2013-01-28 00:44:00,
2013-01-27 19:46:00,38.1,28.5,30.49,South,170,0.0,8.0,68,0.00,,---,0.01,VWS V13.01,2013-01-28 00:46:00,
2013-01-27 19:47:00,38.1,28.5,30.50,South,171,0.0,8.0,68,0.00,,---,0.01,VWS V13.01,2013-01-28 00:47:00,
2013-01-27 19:49:00,38.0,28.4,30.50,South,177,0.0,8.0,68,0.00,,---,0.01,VWS V13.01,2013-01-28 00:49:00,
2013-01-27 19:51:00,38.0,28.4,30.50,SSE,161,3.0,8.0,68,0.00,,---,0.01,VWS V13.01,2013-01-28 00:51:00,
2013-01-27 19:52:00,38.1,28.5,30.50,South,178,3.0,8.0,68,0.00,,---,0.01,VWS V13.01,2013-01-28 00:52:00,
2013-01-27 19:54:00,38.0,28.4,30.50,SSW,198,0.0,8.0,68,0.00,,---,0.01,VWS V13.01,2013-01-28 00:54:00,
2013-01-27 19:56:00,38.0,28.4,30.49,SSW,196,0.0,8.0,68,0.00,,---,0.01,VWS V13.01,2013-01-28 00:56:00,
2013-01-27 19:57:00,38.0,28.4,30.49,SSW,197,0.0,8.0,68,0.00,,---,0.01,VWS V13.01,2013-01-28 00:57:00,
2013-01-27 19:59:00,38.0,28.4,30.49,SSW,195,0.0,8.0,68,0.00,,---,0.01,VWS V13.01,2013-01-28 00:59:00,
2013-01-27 20:01:00,37.9,28.3,30.49,SSW,195,0.0,0.0,68,0.00,,---,0.01,VWS V13.01,2013-01-28 01:01:00,
2013-01-27 20:02:00,38.0,28.8,30.49,SSW,195,0.0,0.0,69,0.00,,---,0.01,VWS V13.01,2013-01-28 01:02:00,
2013-01-27 20:04:00,37.9,28.6,30.49,SSW,211,0.0,3.0,69,0.00,,---,0.01,VWS V13.01,2013-01-28 01:04:00,
2013-01-27 20:06:00,37.9,28.6,30.50,South,188,2.0,5.0,69,0.00,,---,0.01,VWS V13.01,2013-01-28 01:06:00,
2013-01-27 20:07:00,37.9,28.6,30.50,South,188,2.0,5.0,69,0.00,,---,0.01,VWS V13.01,2013-01-28 01:07:00,
2013-01-27 20:09:00,37.9,28.6,30.50,South,173,0.0,5.0,69,0.00,,---,0.01,VWS V13.01,2013-01-28 01:09:00,
2013-01-27 20:12:00,37.8,28.6,30.50,South,173,0.0,5.0,69,0.00,,---,0.01,VWS V13.01,2013-01-28 01:12:00,
2013-01-27 20:14:00,37.8,28.6,30.49,South,173,0.0,5.0,69,0.00,,---,0.01,VWS V13.01,2013-01-28 01:14:00,
2013-01-27 20:17:00,37.8,28.6,30.50,South,174,0.0,5.0,69,0.00,,---,0.01,VWS V13.01,2013-01-28 01:17:00,
2013-01-27 20:19:00,37.8,28.6,30.50,South,174,0.0,5.0,69,0.00,,---,0.01,VWS V13.01,2013-01-28 01:19:00,
2013-01-27 20:22:00,37.8,28.6,30.49,South,174,0.0,5.0,69,0.00,,---,0.01,VWS V13.01,2013-01-28 01:22:00,
2013-01-27 20:24:00,37.8,28.6,30.49,South,173,0.0,5.0,69,0.00,,---,0.01,VWS V13.01,2013-01-28 01:24:00,
2013-01-27 20:25:00,37.8,28.6,30.49,South,173,0.0,5.0,69,0.00,,---,0.01,VWS V13.01,2013-01-28 01:25:00,
2013-01-27 20:27:00,37.7,28.5,30.49,South,173,0.0,5.0,69,0.00,,---,0.01,VWS V13.01,2013-01-28 01:27:00,
2013-01-27 20:29:00,37.7,28.5,30.50,South,173,0.0,5.0,69,0.00,,---,0.01,VWS V13.01,2013-01-28 01:29:00,
2013-01-27 20:30:00,37.7,28.5,30.50,South,173,0.0,5.0,69,0.00,,---,0.01,VWS V13.01,2013-01-28 01:30:00,
2013-01-27 20:32:00,37.7,28.5,30.50,South,173,0.0,0.0,69,0.00,,---,0.01,VWS V13.01,2013-01-28 01:32:00,
2013-01-27 20:35:00,37.7,28.5,30.50,SSW,205,0.0,4.0,69,0.00,,---,0.01,VWS V13.01,2013-01-28 01:35:00,
2013-01-27 20:37:00,37.7,28.8,30.50,SSW,195,4.0,4.0,70,0.00,,---,0.01,VWS V13.01,2013-01-28 01:37:00,
2013-01-27 20:40:00,37.6,28.7,30.49,South,188,0.0,4.0,70,0.00,,---,0.01,VWS V13.01,2013-01-28 01:40:00,
2013-01-27 20:42:00,37.6,28.7,30.49,South,170,0.0,4.0,70,0.00,,---,0.01,VWS V13.01,2013-01-28 01:42:00,
2013-01-27 20:44:00,37.6,28.7,30.49,South,171,1.0,4.0,70,0.00,,---,0.01,VWS V13.01,2013-01-28 01:44:00,
2013-01-27 20:46:00,37.6,28.7,30.49,South,171,0.0,4.0,70,0.00,,---,0.01,VWS V13.01,2013-01-28 01:46:00,
2013-01-27 20:47:00,37.5,28.6,30.49,South,171,1.0,4.0,70,0.00,,---,0.01,VWS V13.01,2013-01-28 01:47:00,
2013-01-27 20:48:00,37.6,28.7,30.49,South,171,0.0,4.0,70,0.00,,---,0.01,VWS V13.01,2013-01-28 01:48:00,
2013-01-27 20:49:00,37.5,28.6,30.49,South,171,0.0,4.0,70,0.00,,---,0.01,VWS V13.01,2013-01-28 01:49:00,
2013-01-27 20:51:00,37.5,28.6,30.49,South,183,0.0,4.0,70,0.00,,---,0.01,VWS V13.01,2013-01-28 01:51:00,
2013-01-27 20:52:00,37.5,28.6,30.49,South,179,1.0,4.0,70,0.00,,---,0.01,VWS V13.01,2013-01-28 01:52:00,
2013-01-27 20:53:00,37.5,28.6,30.49,South,180,2.0,4.0,70,0.00,,---,0.01,VWS V13.01,2013-01-28 01:53:00,
2013-01-27 20:55:00,37.5,28.6,30.49,SSE,167,0.0,4.0,70,0.00,,---,0.01,VWS V13.01,2013-01-28 01:55:00,
2013-01-27 20:56:00,37.5,29.0,30.49,SSE,168,0.0,4.0,71,0.00,,---,0.01,VWS V13.01,2013-01-28 01:56:00,
2013-01-27 20:58:00,37.5,29.0,30.49,SSE,168,0.0,4.0,71,0.00,,---,0.01,VWS V13.01,2013-01-28 01:58:00,
2013-01-27 21:00:00,37.4,28.9,30.49,South,186,3.0,4.0,71,0.00,,---,0.01,VWS V13.01,2013-01-28 02:00:00,
2013-01-27 21:01:00,37.4,28.9,30.49,South,178,0.0,4.0,71,0.00,,---,0.01,VWS V13.01,2013-01-28 02:01:00,
2013-01-27 21:03:00,37.4,28.9,30.49,SSW,209,0.0,4.0,71,0.00,,---,0.01,VWS V13.01,2013-01-28 02:03:00,
2013-01-27 21:06:00,37.4,28.9,30.49,SSW,210,4.0,5.0,71,0.00,,---,0.01,VWS V13.01,2013-01-28 02:06:00,
2013-01-27 21:08:00,37.4,28.9,30.49,South,180,0.0,5.0,71,0.00,,---,0.01,VWS V13.01,2013-01-28 02:08:00,
2013-01-27 21:11:00,37.4,28.9,30.49,SSE,149,2.0,5.0,71,0.00,,---,0.01,VWS V13.01,2013-01-28 02:11:00,
2013-01-27 21:13:00,37.4,28.9,30.49,South,189,0.0,6.0,71,0.00,,---,0.01,VWS V13.01,2013-01-28 02:13:00,
2013-01-27 21:16:00,37.3,28.8,30.49,SW,217,0.0,6.0,71,0.00,,---,0.01,VWS V13.01,2013-01-28 02:16:00,
2013-01-27 21:18:00,37.3,28.8,30.49,South,170,0.0,6.0,71,0.00,,---,0.01,VWS V13.01,2013-01-28 02:18:00,
2013-01-27 21:21:00,37.3,28.8,30.49,SSE,159,0.0,6.0,71,0.00,,---,0.01,VWS V13.01,2013-01-28 02:21:00,
2013-01-27 21:23:00,37.3,28.8,30.49,South,183,0.0,6.0,71,0.00,,---,0.01,VWS V13.01,2013-01-28 02:23:00,
2013-01-27 21:24:00,37.3,28.8,30.49,South,183,0.0,6.0,71,0.00,,---,0.01,VWS V13.01,2013-01-28 02:24:00,
2013-01-27 21:26:00,37.3,28.8,30.49,South,183,0.0,6.0,71,0.00,,---,0.01,VWS V13.01,2013-01-28 02:26:00,
2013-01-27 21:28:00,37.2,29.0,30.49,SSW,198,0.0,6.0,72,0.00,,---,0.01,VWS V13.01,2013-01-28 02:28:00,
2013-01-27 21:29:00,37.2,29.0,30.49,SSW,194,2.0,6.0,72,0.00,,---,0.01,VWS V13.01,2013-01-28 02:29:00,
2013-01-27 21:31:00,37.2,29.0,30.49,SSW,194,0.0,0.0,72,0.00,,---,0.01,VWS V13.01,2013-01-28 02:31:00,
2013-01-27 21:32:00,37.2,29.0,30.49,SSW,194,0.0,0.0,72,0.00,,---,0.01,VWS V13.01,2013-01-28 02:32:00,
2013-01-27 21:33:00,37.2,29.0,30.49,SSW,206,1.0,4.0,72,0.00,,---,0.01,VWS V13.01,2013-01-28 02:33:00,
2013-01-27 21:34:00,37.2,29.0,30.49,SSE,152,0.0,4.0,72,0.00,,---,0.01,VWS V13.01,2013-01-28 02:34:00,
2013-01-27 21:36:00,37.2,29.0,30.49,South,178,0.0,4.0,72,0.00,,---,0.01,VWS V13.01,2013-01-28 02:36:00,
2013-01-27 21:37:00,37.2,29.0,30.49,South,178,0.0,4.0,72,0.00,,---,0.01,VWS V13.01,2013-01-28 02:37:00,
2013-01-27 21:38:00,37.2,29.0,30.49,South,178,0.0,4.0,72,0.00,,---,0.01,VWS V13.01,2013-01-28 02:38:00,
2013-01-27 21:39:00,37.2,29.0,30.49,South,178,0.0,4.0,72,0.00,,---,0.01,VWS V13.01,2013-01-28 02:39:00,
2013-01-27 21:41:00,37.1,28.9,30.49,SSE,159,0.0,4.0,72,0.00,,---,0.01,VWS V13.01,2013-01-28 02:41:00,
2013-01-27 21:42:00,37.1,28.9,30.49,SSE,155,3.0,4.0,72,0.00,,---,0.01,VWS V13.01,2013-01-28 02:42:00,
2013-01-27 21:43:00,37.1,28.9,30.49,South,184,0.0,4.0,72,0.00,,---,0.01,VWS V13.01,2013-01-28 02:43:00,
2013-01-27 21:44:00,37.1,28.9,30.49,South,183,0.0,4.0,72,0.00,,---,0.01,VWS V13.01,2013-01-28 02:44:00,
2013-01-27 21:46:00,37.1,28.9,30.49,South,187,3.0,4.0,72,0.00,,---,0.01,VWS V13.01,2013-01-28 02:46:00,
2013-01-27 21:47:00,37.1,28.9,30.48,South,187,0.0,4.0,72,0.00,,---,0.01,VWS V13.01,2013-01-28 02:47:00,
2013-01-27 21:48:00,37.1,28.9,30.49,SSW,198,1.0,4.0,72,0.00,,---,0.01,VWS V13.01,2013-01-28 02:48:00,
2013-01-27 21:49:00,37.1,28.9,30.49,SSW,198,0.0,4.0,72,0.00,,---,0.01,VWS V13.01,2013-01-28 02:49:00,
2013-01-27 21:51:00,37.1,28.9,30.49,SW,222,0.0,5.0,72,0.00,,---,0.01,VWS V13.01,2013-01-28 02:51:00,
2013-01-27 21:52:00,37.1,28.9,30.49,SSW,209,3.0,5.0,72,0.00,,---,0.01,VWS V13.01,2013-01-28 02:52:00,
2013-01-27 21:53:00,37.1,28.9,30.49,SSE,164,2.0,5.0,72,0.00,,---,0.01,VWS V13.01,2013-01-28 02:53:00,
2013-01-27 21:54:00,37.1,28.9,30.49,South,175,0.0,5.0,72,0.00,,---,0.01,VWS V13.01,2013-01-28 02:54:00,
2013-01-27 21:56:00,37.1,28.9,30.48,SSE,153,0.0,5.0,72,0.00,,---,0.01,VWS V13.01,2013-01-28 02:56:00,
2013-01-27 21:57:00,37.1,28.9,30.48,SSE,152,0.0,5.0,72,0.00,,---,0.01,VWS V13.01,2013-01-28 02:57:00,
2013-01-27 21:59:00,37.1,28.9,30.49,South,175,2.0,5.0,72,0.00,,---,0.01,VWS V13.01,2013-01-28 02:59:00,
2013-01-27 22:01:00,37.1,28.9,30.49,SSW,196,0.0,0.0,72,0.00,,---,0.01,VWS V13.01,2013-01-28 03:01:00,
2013-01-27 22:02:00,37.1,28.9,30.49,SSW,196,0.0,1.0,72,0.00,,---,0.01,VWS V13.01,2013-01-28 03:02:00,
2013-01-27 22:04:00,37.1,28.9,30.49,SSW,200,0.0,4.0,72,0.00,,---,0.01,VWS V13.01,2013-01-28 03:04:00,
2013-01-27 22:05:00,37.1,28.9,30.49,SSW,199,0.0,4.0,72,0.00,,---,0.01,VWS V13.01,2013-01-28 03:05:00,
2013-01-27 22:06:00,37.1,28.9,30.48,SSW,199,0.0,4.0,72,0.00,,---,0.01,VWS V13.01,2013-01-28 03:06:00,
2013-01-27 22:07:00,37.1,28.9,30.48,SSW,199,0.0,4.0,72,0.00,,---,0.01,VWS V13.01,2013-01-28 03:07:00,
2013-01-27 22:09:00,37.1,28.9,30.48,SSW,197,0.0,4.0,72,0.00,,---,0.01,VWS V13.01,2013-01-28 03:09:00,
2013-01-27 22:10:00,37.1,28.9,30.48,SE,141,0.0,4.0,72,0.00,,---,0.01,VWS V13.01,2013-01-28 03:10:00,
2013-01-27 22:11:00,37.1,28.9,30.48,SSW,194,4.0,5.0,72,0.00,,---,0.01,VWS V13.01,2013-01-28 03:11:00,
2013-01-27 22:12:00,37.1,28.9,30.48,South,175,2.0,5.0,72,0.00,,---,0.01,VWS V13.01,2013-01-28 03:12:00,
2013-01-27 22:14:00,37.0,28.8,30.48,South,172,6.0,6.0,72,0.00,,---,0.01,VWS V13.01,2013-01-28 03:14:00,
2013-01-27 22:15:00,37.0,28.8,30.48,SW,229,0.0,6.0,72,0.00,,---,0.01,VWS V13.01,2013-01-28 03:15:00,
2013-01-27 22:17:00,37.0,28.8,30.48,SW,220,0.0,6.0,72,0.00,,---,0.01,VWS V13.01,2013-01-28 03:17:00,
2013-01-27 22:19:00,37.0,28.8,30.47,SSE,167,7.0,10.0,72,0.00,,---,0.01,VWS V13.01,2013-01-28 03:19:00,
2013-01-27 22:20:00,37.0,28.8,30.47,South,169,2.0,10.0,72,0.00,,---,0.01,VWS V13.01,2013-01-28 03:20:00,
2013-01-27 22:22:00,37.0,28.8,30.47,SE,137,0.0,10.0,72,0.00,,---,0.01,VWS V13.01,2013-01-28 03:22:00,
2013-01-27 22:23:00,37.0,28.8,30.47,South,169,1.0,10.0,72,0.00,,---,0.01,VWS V13.01,2013-01-28 03:23:00,
2013-01-27 22:24:00,37.0,28.8,30.47,SSE,162,4.0,10.0,72,0.00,,---,0.01,VWS V13.01,2013-01-28 03:24:00,
2013-01-27 22:25:00,37.0,28.8,30.47,SSE,164,0.0,10.0,72,0.00,,---,0.01,VWS V13.01,2013-01-28 03:25:00,
2013-01-27 22:27:00,36.9,28.7,30.47,SSE,160,0.0,10.0,72,0.00,,---,0.01,VWS V13.01,2013-01-28 03:27:00,
2013-01-27 22:28:00,36.9,29.1,30.47,SSE,160,0.0,10.0,73,0.00,,---,0.01,VWS V13.01,2013-01-28 03:28:00,
2013-01-27 22:29:00,36.9,28.7,30.47,SSW,192,7.0,10.0,72,0.00,,---,0.01,VWS V13.01,2013-01-28 03:29:00,
2013-01-27 22:31:00,36.9,28.7,30.47,SSE,150,6.0,6.0,72,0.00,,---,0.01,VWS V13.01,2013-01-28 03:31:00,
2013-01-27 22:32:00,36.8,29.0,30.47,South,176,9.0,9.0,73,0.00,,---,0.01,VWS V13.01,2013-01-28 03:32:00,
2013-01-27 22:33:00,36.8,29.0,30.47,SSE,163,0.0,9.0,73,0.00,,---,0.01,VWS V13.01,2013-01-28 03:33:00,
2013-01-27 22:35:00,36.8,28.6,30.47,SSE,160,4.0,9.0,72,0.00,,---,0.01,VWS V13.01,2013-01-28 03:35:00,
2013-01-27 22:36:00,36.8,29.0,30.47,SSW,209,4.0,9.0,73,0.00,,---,0.01,VWS V13.01,2013-01-28 03:36:00,
2013-01-27 22:37:00,36.8,29.0,30.47,SSW,194,0.0,9.0,73,0.00,,---,0.01,VWS V13.01,2013-01-28 03:37:00,
2013-01-27 22:38:00,36.7,28.9,30.47,SSW,194,0.0,9.0,73,0.00,,---,0.01,VWS V13.01,2013-01-28 03:38:00,
2013-01-27 22:40:00,36.7,28.9,30.47,SSW,192,2.0,9.0,73,0.00,,---,0.01,VWS V13.01,2013-01-28 03:40:00,
2013-01-27 22:41:00,36.7,28.9,30.47,South,174,0.0,9.0,73,0.00,,---,0.01,VWS V13.01,2013-01-28 03:41:00,
2013-01-27 22:42:00,36.7,28.9,30.47,South,174,0.0,9.0,73,0.00,,---,0.01,VWS V13.01,2013-01-28 03:42:00,
2013-01-27 22:43:00,36.7,28.9,30.47,South,174,0.0,9.0,73,0.00,,---,0.01,VWS V13.01,2013-01-28 03:43:00,
2013-01-27 22:45:00,36.6,28.8,30.47,South,173,0.0,9.0,73,0.00,,---,0.01,VWS V13.01,2013-01-28 03:45:00,
2013-01-27 22:46:00,36.6,28.8,30.47,South,175,0.0,9.0,73,0.00,,---,0.01,VWS V13.01,2013-01-28 03:46:00,
2013-01-27 22:47:00,36.6,28.8,30.47,South,175,0.0,9.0,73,0.00,,---,0.01,VWS V13.01,2013-01-28 03:47:00,
2013-01-27 22:48:00,36.6,28.8,30.47,South,173,0.0,9.0,73,0.00,,---,0.01,VWS V13.01,2013-01-28 03:48:00,
2013-01-27 22:50:00,36.5,28.7,30.47,South,173,0.0,9.0,73,0.00,,---,0.01,VWS V13.01,2013-01-28 03:50:00,
2013-01-27 22:51:00,36.5,28.7,30.47,South,173,0.0,9.0,73,0.00,,---,0.01,VWS V13.01,2013-01-28 03:51:00,
2013-01-27 22:52:00,36.5,28.7,30.47,South,173,0.0,9.0,73,0.00,,---,0.01,VWS V13.01,2013-01-28 03:52:00,
2013-01-27 22:53:00,36.5,28.7,30.47,South,173,0.0,9.0,73,0.00,,---,0.01,VWS V13.01,2013-01-28 03:53:00,
2013-01-27 22:55:00,36.4,28.6,30.47,South,173,0.0,9.0,73,0.00,,---,0.01,VWS V13.01,2013-01-28 03:55:00,
2013-01-27 22:56:00,36.4,28.6,30.47,South,173,0.0,9.0,73,0.00,,---,0.01,VWS V13.01,2013-01-28 03:56:00,
2013-01-27 22:57:00,36.4,28.6,30.47,South,173,0.0,9.0,73,0.00,,---,0.01,VWS V13.01,2013-01-28 03:57:00,
2013-01-27 22:58:00,36.4,28.6,30.47,South,173,0.0,9.0,73,0.00,,---,0.01,VWS V13.01,2013-01-28 03:58:00,
2013-01-27 23:00:00,36.3,28.5,30.48,South,173,0.0,9.0,73,0.00,,---,0.01,VWS V13.01,2013-01-28 04:00:00,
2013-01-27 23:01:00,36.3,28.5,30.48,South,175,0.0,1.0,73,0.00,,---,0.01,VWS V13.01,2013-01-28 04:01:00,
2013-01-27 23:02:00,36.3,28.5,30.48,South,175,0.0,1.0,73,0.00,,---,0.01,VWS V13.01,2013-01-28 04:02:00,
2013-01-27 23:03:00,36.2,28.4,30.48,South,175,0.0,1.0,73,0.00,,---,0.01,VWS V13.01,2013-01-28 04:03:00,
2013-01-27 23:05:00,36.2,28.4,30.48,South,175,0.0,1.0,73,0.00,,---,0.01,VWS V13.01,2013-01-28 04:05:00,
2013-01-27 23:07:00,36.1,28.3,30.48,South,175,0.0,1.0,73,0.00,,---,0.01,VWS V13.01,2013-01-28 04:07:00,
2013-01-27 23:08:00,36.1,28.3,30.48,South,175,0.0,1.0,73,0.00,,---,0.01,VWS V13.01,2013-01-28 04:08:00,
2013-01-27 23:10:00,36.0,28.2,30.47,South,175,0.0,1.0,73,0.00,,---,0.01,VWS V13.01,2013-01-28 04:10:00,
2013-01-27 23:12:00,36.0,28.2,30.47,South,175,0.0,1.0,73,0.00,,---,0.01,VWS V13.01,2013-01-28 04:12:00,
2013-01-27 23:13:00,36.0,28.2,30.47,South,175,0.0,1.0,73,0.00,,---,0.01,VWS V13.01,2013-01-28 04:13:00,
2013-01-27 23:15:00,35.9,28.1,30.47,South,175,0.0,1.0,73,0.00,,---,0.01,VWS V13.01,2013-01-28 04:15:00,
2013-01-27 23:17:00,35.9,28.1,30.48,South,175,0.0,1.0,73,0.00,,---,0.01,VWS V13.01,2013-01-28 04:17:00,
2013-01-27 23:18:00,35.9,28.4,30.47,South,175,0.0,1.0,74,0.00,,---,0.01,VWS V13.01,2013-01-28 04:18:00,
2013-01-27 23:20:00,35.8,28.3,30.47,South,175,0.0,1.0,74,0.00,,---,0.01,VWS V13.01,2013-01-28 04:20:00,
2013-01-27 23:22:00,35.8,28.3,30.48,South,175,0.0,1.0,74,0.00,,---,0.01,VWS V13.01,2013-01-28 04:22:00,
2013-01-27 23:23:00,35.7,28.2,30.47,South,175,0.0,1.0,74,0.00,,---,0.01,VWS V13.01,2013-01-28 04:23:00,
2013-01-27 23:25:00,35.7,28.2,30.47,South,175,0.0,1.0,74,0.00,,---,0.01,VWS V13.01,2013-01-28 04:25:00,
2013-01-27 23:27:00,35.7,28.2,30.47,South,175,0.0,1.0,74,0.00,,---,0.01,VWS V13.01,2013-01-28 04:27:00,
2013-01-27 23:29:00,35.6,28.1,30.47,South,175,0.0,2.0,74,0.00,,---,0.01,VWS V13.01,2013-01-28 04:29:00,
2013-01-27 23:30:00,35.6,28.1,30.47,SSE,167,2.0,3.0,74,0.00,,---,0.01,VWS V13.01,2013-01-28 04:30:00,
2013-01-27 23:33:00,35.5,28.4,30.47,South,169,1.0,1.0,75,0.00,,---,0.01,VWS V13.01,2013-01-28 04:33:00,
2013-01-27 23:34:00,35.5,28.4,30.47,South,169,0.0,1.0,75,0.00,,---,0.01,VWS V13.01,2013-01-28 04:34:00,
2013-01-27 23:35:00,35.5,28.4,30.47,South,169,0.0,1.0,75,0.00,,---,0.01,VWS V13.01,2013-01-28 04:35:00,
2013-01-27 23:38:00,35.4,28.3,30.47,South,169,0.0,1.0,75,0.00,,---,0.01,VWS V13.01,2013-01-28 04:38:00,
2013-01-27 23:39:00,35.4,28.3,30.47,South,169,0.0,3.0,75,0.00,,---,0.01,VWS V13.01,2013-01-28 04:39:00,
2013-01-27 23:40:00,35.4,28.3,30.47,South,169,0.0,3.0,75,0.00,,---,0.01,VWS V13.01,2013-01-28 04:40:00,
2013-01-27 23:43:00,35.4,28.3,30.47,SSE,157,0.0,4.0,75,0.00,,---,0.01,VWS V13.01,2013-01-28 04:43:00,
2013-01-27 23:44:00,35.4,28.3,30.47,SSE,157,0.0,4.0,75,0.00,,---,0.01,VWS V13.01,2013-01-28 04:44:00,
2013-01-27 23:45:00,35.3,28.5,30.47,SSE,157,0.0,4.0,76,0.00,,---,0.01,VWS V13.01,2013-01-28 04:45:00,
2013-01-27 23:48:00,35.3,28.2,30.47,SSE,156,0.0,4.0,75,0.00,,---,0.01,VWS V13.01,2013-01-28 04:48:00,
2013-01-27 23:49:00,35.3,28.5,30.47,SSE,157,0.0,4.0,76,0.00,,---,0.01,VWS V13.01,2013-01-28 04:49:00,
2013-01-27 23:51:00,35.3,28.5,30.47,SSE,157,0.0,4.0,76,0.00,,---,0.01,VWS V13.01,2013-01-28 04:51:00,
2013-01-27 23:53:00,35.3,28.5,30.47,SSE,163,0.0,4.0,76,0.00,,---,0.01,VWS V13.01,2013-01-28 04:53:00,
2013-01-27 23:54:00,35.2,28.4,30.47,SSE,163,0.0,4.0,76,0.00,,---,0.01,VWS V13.01,2013-01-28 04:54:00,
2013-01-27 23:56:00,35.2,28.4,30.47,SSE,163,0.0,4.0,76,0.00,,---,0.01,VWS V13.01,2013-01-28 04:56:00,
2013-01-27 23:58:00,35.2,28.4,30.47,SSE,159,0.0,4.0,76,0.00,,---,0.01,VWS V13.01,2013-01-28 04:58:00,
2013-01-27 23:59:00,35.2,28.4,30.47,SSE,159,0.0,4.0,76,0.00,,---,0.01,VWS V13.01,2013-01-28 04:59:00,